| time (UTC) | temp C | wind direction | speed KPH | gust KPH | rain 1hr cm | rain 24hr cm | rain mn cm | humidity % | barometer mb |
| 20260506012357 | 7 | 161 | 0.0 | 14.5 | 0.00 | 0.00 | 0.00 | 52 | 1011.2 |
| 20260506012221 | 7 | 161 | 0.0 | 14.5 | 0.00 | 0.00 | 0.00 | 51 | 1011.2 |
| 20260506012102 | 7 | 0 | 0.0 | 14.5 | 0.00 | 0.00 | 0.00 | 51 | 1011.1 |
| 20260506011831 | 7 | 0 | 0.0 | 14.5 | 0.00 | 0.00 | 0.00 | 51 | 1011.1 |
| 20260506011721 | 7 | 341 | 0.0 | 14.5 | 0.00 | 0.00 | 0.00 | 52 | 1011.1 |
| 20260506011624 | 7 | 216 | 0.0 | 14.5 | 0.00 | 0.00 | 0.00 | 52 | 1011.2 |
| 20260506011422 | 7 | 217 | 0.0 | 14.5 | 0.00 | 0.00 | 0.00 | 52 | 1011.0 |
| 20260506011221 | 8 | 202 | 0.0 | 3.2 | 0.00 | 0.00 | 0.00 | 51 | 1011.0 |
| 20260506011023 | 8 | 202 | 0.0 | 3.2 | 0.00 | 0.00 | 0.00 | 51 | 1010.9 |
| 20260506010823 | 8 | 238 | 0.0 | 3.2 | 0.00 | 0.00 | 0.00 | 52 | 1011.0 |
| 20260506010730 | 8 | 238 | 0.0 | 3.2 | 0.00 | 0.00 | 0.00 | 52 | 1011.0 |
| 20260506010725 | 8 | 238 | 0.0 | 3.2 | 0.00 | 0.00 | 0.00 | 52 | 1010.9 |
| 20260506010458 | 8 | 238 | 0.0 | 9.7 | 0.00 | 0.00 | 0.00 | 52 | 1010.9 |
| 20260506010451 | 8 | 238 | 0.0 | 3.2 | 0.00 | 0.00 | 0.00 | 52 | 1010.9 |
| 20260506010423 | 8 | 238 | 0.0 | 9.7 | 0.00 | 0.00 | 0.00 | 52 | 1010.9 |
| 20260506010029 | 8 | 227 | 0.0 | 9.7 | 0.00 | 0.00 | 0.00 | 52 | 1010.9 |
| 20260506005820 | 8 | 227 | 0.0 | 9.7 | 0.00 | 0.00 | 0.00 | 52 | 1010.9 |
| 20260506005706 | 8 | 237 | 0.0 | 9.7 | 0.00 | 0.00 | 0.00 | 52 | 1010.9 |
| 20260506005618 | 8 | 237 | 0.0 | 9.7 | 0.00 | 0.00 | 0.00 | 52 | 1010.9 |
| 20260506005505 | 8 | 183 | 0.0 | 8.0 | 0.00 | 0.00 | 0.00 | 52 | 1010.9 |
| 20260506005453 | 8 | 240 | 0.0 | 9.7 | 0.00 | 0.00 | 0.00 | 53 | 1010.9 |
| 20260506005423 | 8 | 183 | 0.0 | 8.0 | 0.00 | 0.00 | 0.00 | 52 | 1010.8 |
| 20260506005117 | 8 | 224 | 0.0 | 8.0 | 0.00 | 0.00 | 0.00 | 51 | 1010.9 |
| 20260506004818 | 8 | 224 | 0.0 | 8.0 | 0.00 | 0.00 | 0.00 | 51 | 1010.9 |
| 20260506004635 | 8 | 224 | 0.0 | 8.0 | 0.00 | 0.00 | 0.00 | 51 | 1010.8 |
| 20260506004617 | 8 | 224 | 0.0 | 8.0 | 0.00 | 0.00 | 0.00 | 52 | 1010.8 |
| 20260506004425 | 8 | 226 | 0.0 | 4.8 | 0.00 | 0.00 | 0.00 | 50 | 1010.8 |
| 20260506004421 | -17 | 226 | 0.0 | 4.8 | 0.00 | 0.00 | 0.00 | 1010.8 | |
| 20260506004352 | 8 | 226 | 0.0 | 4.8 | 0.00 | 0.00 | 0.00 | 50 | 1010.8 |
| 20260506004005 | 8 | 226 | 0.0 | 4.8 | 0.00 | 0.00 | 0.00 | 50 | 1010.8 |
| 20260506003806 | 8 | 226 | 0.0 | 6.4 | 0.00 | 0.00 | 0.00 | 50 | 1010.8 |
| 20260506003637 | 8 | 226 | 0.0 | 6.4 | 0.00 | 0.00 | 0.00 | 50 | 1010.8 |
| 20260506003533 | 8 | 226 | 0.0 | 6.4 | 0.00 | 0.00 | 0.00 | 50 | 1010.8 |
| 20260506003407 | 8 | 99 | 0.0 | 6.4 | 0.00 | 0.00 | 0.00 | 50 | 1010.8 |
| 20260506003108 | 8 | 223 | 0.0 | 6.4 | 0.00 | 0.00 | 0.00 | 50 | 1010.8 |
| 20260506002906 | 8 | 223 | 0.0 | 6.4 | 0.00 | 0.00 | 0.00 | 52 | 1010.7 |
| 20260506002804 | 8 | 223 | 0.0 | 6.4 | 0.00 | 0.00 | 0.00 | 49 | 1010.8 |
| 20260506002617 | 8 | 243 | 0.0 | 11.3 | 0.00 | 0.00 | 0.00 | 50 | 1010.8 |
| 20260506002507 | 8 | 243 | 0.0 | 11.3 | 0.00 | 0.00 | 0.00 | 50 | 1010.7 |
| 20260506002404 | 8 | 243 | 0.0 | 11.3 | 0.00 | 0.00 | 0.00 | 48 | 1010.7 |
| 20260506002349 | 8 | 243 | 0.0 | 11.3 | 0.00 | 0.00 | 0.00 | 50 | 1010.6 |
| 20260506002324 | 8 | 243 | 0.0 | 11.3 | 0.00 | 0.00 | 0.00 | 48 | 1010.7 |
| 20260506001906 | 8 | 243 | 0.0 | 11.3 | 0.00 | 0.00 | 0.00 | 48 | 1010.6 |
| 20260506001704 | 8 | 243 | 0.0 | 11.3 | 0.00 | 0.00 | 0.00 | 48 | 1010.6 |
| 20260506001609 | 8 | 196 | 0.0 | 6.4 | 0.00 | 0.00 | 0.00 | 49 | 1010.6 |
| 20260506001506 | 8 | 196 | 0.0 | 6.4 | 0.00 | 0.00 | 0.00 | 49 | 1010.6 |
| 20260506001345 | 8 | 183 | 0.0 | 6.4 | 0.00 | 0.00 | 0.00 | 50 | 1010.5 |
| 20260506001341 | 8 | 183 | 0.0 | 6.4 | 0.00 | 0.00 | 0.00 | 50 | 1010.5 |
| 20260506001330 | 8 | 183 | 0.0 | 6.4 | 0.00 | 0.00 | 0.00 | 50 | 1010.5 |
| 20260506000810 | 8 | 182 | 0.0 | 6.4 | 0.00 | 0.00 | 0.00 | 51 | 1010.5 |
| 20260506000601 | 8 | 255 | 0.0 | 6.4 | 0.00 | 0.00 | 0.00 | 50 | 1010.4 |
| 20260506000406 | 8 | 255 | 0.0 | 9.7 | 0.00 | 0.00 | 0.00 | 50 | 1010.4 |
| 20260506000347 | 8 | 243 | 0.0 | 9.7 | 0.00 | 0.00 | 0.00 | 50 | 1010.5 |
| 20260506000327 | 8 | 243 | 0.0 | 9.7 | 0.00 | 0.00 | 0.00 | 49 | 1010.5 |
| 20260506000009 | 8 | 257 | 0.0 | 9.7 | 0.00 | 0.00 | 0.00 | 50 | 1010.5 |
| 20260505235745 | 8 | 257 | 0.0 | 9.7 | 0.00 | 0.00 | 0.00 | 49 | 1010.4 |
| 20260505235603 | 8 | 257 | 0.0 | 11.3 | 0.00 | 0.00 | 0.00 | 48 | 1010.4 |
| 20260505235546 | 8 | 257 | 0.0 | 11.3 | 0.00 | 0.00 | 0.00 | 48 | 1010.4 |
| 20260505235447 | 8 | 252 | 0.0 | 11.3 | 0.00 | 0.00 | 0.00 | 48 | 1010.5 |
| 20260505235352 | 8 | 221 | 0.0 | 11.3 | 0.00 | 0.00 | 0.00 | 47 | 1010.4 |
| 20260505235322 | 8 | 252 | 0.0 | 11.3 | 0.00 | 0.00 | 0.00 | 47 | 1010.4 |
| 20260505234945 | 8 | 262 | 0.0 | 11.3 | 0.00 | 0.00 | 0.00 | 46 | 1010.4 |
| 20260505234730 | 8 | 234 | 0.0 | 9.7 | 0.00 | 0.00 | 0.00 | 47 | 1010.4 |
| 20260505234604 | 8 | 247 | 0.0 | 9.7 | 0.00 | 0.00 | 0.00 | 47 | 1010.4 |
| 20260505234529 | 8 | 245 | 0.0 | 9.7 | 0.00 | 0.00 | 0.00 | 47 | 1010.4 |
| 20260505234428 | 9 | 219 | 0.0 | 6.4 | 0.00 | 0.00 | 0.00 | 46 | 1010.4 |
| 20260505234102 | 9 | 226 | 0.0 | 11.3 | 0.00 | 0.00 | 0.00 | 46 | 1010.3 |
| 20260505233903 | 9 | 226 | 0.0 | 11.3 | 0.00 | 0.00 | 0.00 | 46 | 1010.4 |
| 20260505233842 | 9 | 226 | 0.0 | 16.1 | 0.00 | 0.00 | 0.00 | 46 | 1010.3 |
| 20260505233826 | 9 | 226 | 0.0 | 11.3 | 0.00 | 0.00 | 0.00 | 46 | 1010.4 |
| 20260505233500 | 9 | 226 | 0.0 | 16.1 | 0.00 | 0.00 | 0.00 | 46 | 1010.4 |
| 20260505233259 | 9 | 216 | 0.0 | 16.1 | 0.00 | 0.00 | 0.00 | 45 | 1010.3 |
| 20260505233100 | 10 | 228 | 0.0 | 16.1 | 0.00 | 0.00 | 0.00 | 46 | 1010.3 |
| 20260505233050 | 10 | 251 | 0.0 | 16.1 | 0.00 | 0.00 | 0.00 | 46 | 1010.3 |
| 20260505232910 | 10 | 197 | 0.0 | 16.1 | 0.00 | 0.00 | 0.00 | 49 | 1010.4 |
| 20260505232855 | 9 | 265 | 0.0 | 16.1 | 0.00 | 0.00 | 0.00 | 46 | 1010.3 |
| 20260505232833 | 10 | 247 | 0.0 | 9.7 | 0.00 | 0.00 | 0.00 | 49 | 1010.3 |
| 20260505232452 | 10 | 230 | 0.0 | 9.7 | 0.00 | 0.00 | 0.00 | 48 | 1010.3 |
| 20260505232248 | 10 | 251 | 0.0 | 8.0 | 0.00 | 0.00 | 0.00 | 48 | 1010.3 |
| 20260505232053 | 10 | 227 | 0.0 | 8.0 | 0.00 | 0.00 | 0.00 | 47 | 1010.2 |
| 20260505232048 | 10 | 226 | 0.0 | 8.0 | 0.00 | 0.00 | 0.00 | 47 | 1010.2 |
| 20260505231849 | 10 | 238 | 0.0 | 8.0 | 0.00 | 0.00 | 0.00 | 46 | 1010.3 |
| 20260505231833 | 10 | 245 | 0.0 | 11.3 | 0.00 | 0.00 | 0.00 | 47 | 1010.3 |
| 20260505231810 | 10 | 245 | 0.0 | 11.3 | 0.00 | 0.00 | 0.00 | 47 | 1010.3 |
| 20260505231448 | 10 | 245 | 0.0 | 11.3 | 0.00 | 0.00 | 0.00 | 47 | 1010.4 |
| 20260505231248 | 10 | 243 | 0.0 | 11.3 | 0.00 | 0.00 | 0.00 | 47 | 1010.4 |
| 20260505231130 | 10 | 243 | 0.0 | 11.3 | 0.00 | 0.00 | 0.00 | 46 | 1010.4 |
| 20260505231031 | 10 | 243 | 0.0 | 11.3 | 0.00 | 0.00 | 0.00 | 46 | 1010.4 |
| 20260505230831 | 10 | 233 | 0.0 | 11.3 | 0.00 | 0.00 | 0.00 | 47 | 1010.3 |
| 20260505230630 | 10 | 240 | 0.0 | 9.7 | 0.00 | 0.00 | 0.00 | 47 | 1010.3 |
| 20260505230531 | 10 | 247 | 0.0 | 9.7 | 0.00 | 0.00 | 0.00 | 47 | 1010.3 |
| 20260505230431 | 10 | 265 | 0.0 | 4.8 | 0.00 | 0.00 | 0.00 | 47 | 1010.4 |
| 20260505230315 | 10 | 172 | 0.0 | 6.4 | 0.00 | 0.00 | 0.00 | 47 | 1010.5 |
| 20260505230300 | 10 | 172 | 0.0 | 4.8 | 0.00 | 0.00 | 0.00 | 47 | 1010.3 |
| 20260505225803 | 10 | 172 | 0.0 | 8.0 | 0.00 | 0.00 | 0.00 | 47 | 1010.4 |
| 20260505225557 | 10 | 171 | 0.0 | 8.0 | 0.00 | 0.00 | 0.00 | 47 | 1010.4 |
| 20260505225532 | 10 | 190 | 0.0 | 8.0 | 0.00 | 0.00 | 0.00 | 47 | 1010.3 |
| 20260505225336 | 10 | 244 | 0.0 | 8.0 | 0.00 | 0.00 | 0.00 | 47 | 1010.4 |
| 20260505225330 | 10 | 233 | 0.0 | 8.0 | 0.00 | 0.00 | 0.00 | 46 | 1010.4 |
| 20260505225257 | 10 | 234 | 0.0 | 8.0 | 0.00 | 0.00 | 0.00 | 46 | 1010.4 |
| 20260505224932 | 10 | 268 | 0.0 | 8.0 | 0.00 | 0.00 | 0.00 | 46 | 1010.4 |
| 20260505224734 | 10 | 189 | 0.0 | 8.0 | 0.00 | 0.00 | 0.00 | 48 | 1010.4 |
| 20260505224531 | 10 | 240 | 0.0 | 8.0 | 0.00 | 0.00 | 0.00 | 46 | 1010.3 |
| 20260505224435 | 10 | 286 | 0.0 | 8.0 | 0.00 | 0.00 | 0.00 | 46 | 1010.4 |
| 20260505224259 | 10 | 240 | 0.0 | 17.7 | 0.00 | 0.00 | 0.00 | 48 | 1010.3 |
| 20260505224236 | 10 | 245 | 0.0 | 14.5 | 0.00 | 0.00 | 0.00 | 48 | 1010.3 |
| 20260505223935 | 10 | 192 | 0.0 | 17.7 | 0.00 | 0.00 | 0.00 | 48 | 1010.3 |
| 20260505223735 | 10 | 221 | 0.0 | 17.7 | 0.00 | 0.00 | 0.00 | 46 | 1010.4 |
| 20260505223536 | 10 | 212 | 0.0 | 17.7 | 0.00 | 0.00 | 0.00 | 46 | 1010.3 |
| 20260505223503 | 10 | 224 | 0.0 | 17.7 | 0.00 | 0.00 | 0.00 | 46 | 1010.3 |
| 20260505223335 | 10 | 251 | 0.0 | 17.7 | 0.00 | 0.00 | 0.00 | 46 | 1010.2 |
| 20260505223137 | 10 | 243 | 0.0 | 14.5 | 0.00 | 0.00 | 0.00 | 46 | 1010.2 |
| 20260505223002 | 10 | 250 | 0.0 | 11.3 | 0.00 | 0.00 | 0.00 | 46 | 1010.2 |
| 20260505222932 | 10 | 250 | 0.0 | 11.3 | 0.00 | 0.00 | 0.00 | 47 | 1010.2 |
| 20260505222836 | 10 | 241 | 0.0 | 11.3 | 0.00 | 0.00 | 0.00 | 47 | 1010.1 |
| 20260505222503 | 10 | 241 | 0.0 | 11.3 | 0.00 | 0.00 | 0.00 | 47 | 1010.2 |
| 20260505222436 | 10 | 220 | 0.0 | 11.3 | 0.00 | 0.00 | 0.00 | 46 | 1010.2 |
| 20260505222130 | 10 | 240 | 0.0 | 11.3 | 0.00 | 0.00 | 0.00 | 46 | 1010.2 |
| 20260505221939 | 10 | 204 | 0.0 | 11.3 | 0.00 | 0.00 | 0.00 | 47 | 1010.1 |
| 20260505221931 | 10 | 204 | 0.0 | 11.3 | 0.00 | 0.00 | 0.00 | 48 | 1010.2 |
| 20260505221734 | 10 | 219 | 0.0 | 11.3 | 0.00 | 0.00 | 0.00 | 45 | 1010.2 |
| 20260505221717 | 10 | 233 | 0.0 | 11.3 | 0.00 | 0.00 | 0.00 | 43 | 1010.2 |
| 20260505221659 | 10 | 219 | 0.0 | 11.3 | 0.00 | 0.00 | 0.00 | 45 | 1010.2 |
| 20260505221333 | 10 | 213 | 0.0 | 11.3 | 0.00 | 0.00 | 0.00 | 43 | 1010.2 |
| 20260505221135 | 10 | 240 | 0.0 | 1.6 | 0.00 | 0.00 | 0.00 | 45 | 1010.2 |
| 20260505220929 | 10 | 240 | 0.0 | 11.3 | 0.00 | 0.00 | 0.00 | 45 | 1010.1 |
| 20260505220816 | 10 | 240 | 0.0 | 11.3 | 0.00 | 0.00 | 0.00 | 45 | 1010.1 |
| 20260505220713 | 10 | 240 | 0.0 | 11.3 | 0.00 | 0.00 | 0.00 | 45 | 1010.1 |
| 20260505220649 | 10 | 240 | 0.0 | 11.3 | 0.00 | 0.00 | 0.00 | 45 | 1010.1 |
| 20260505220319 | 10 | 241 | 0.0 | 11.3 | 0.00 | 0.00 | 0.00 | 45 | 1010.1 |
| 20260505215929 | 10 | 258 | 0.0 | 3.2 | 0.00 | 0.00 | 0.00 | 45 | 1010.1 |
| 20260505215901 | 10 | 257 | 0.0 | 8.0 | 0.00 | 0.00 | 0.00 | 46 | 1010.2 |
| 20260505215723 | 10 | 190 | 0.0 | 11.3 | 0.00 | 0.00 | 0.00 | 46 | 1010.3 |
| 20260505215713 | 10 | 190 | 0.0 | 8.0 | 0.00 | 0.00 | 0.00 | 46 | 1010.2 |
| 20260505215643 | 10 | 190 | 0.0 | 11.3 | 0.00 | 0.00 | 0.00 | 46 | 1010.3 |
| 20260505215231 | 10 | 190 | 0.0 | 17.7 | 0.00 | 0.00 | 0.00 | 46 | 1010.2 |
| 20260505215132 | 10 | 190 | 0.0 | 17.7 | 0.00 | 0.00 | 0.00 | 46 | 1010.3 |
| 20260505214910 | 10 | 252 | 0.0 | 17.7 | 0.00 | 0.00 | 0.00 | 46 | 1010.3 |
| 20260505214808 | 10 | 252 | 0.0 | 17.7 | 0.00 | 0.00 | 0.00 | 46 | 1010.2 |
| 20260505214716 | 10 | 258 | 0.0 | 17.7 | 0.00 | 0.00 | 0.00 | 46 | 1010.3 |
| 20260505214657 | 10 | 219 | 0.0 | 17.7 | 0.00 | 0.00 | 0.00 | 48 | 1010.3 |
| 20260505214620 | 10 | 262 | 0.0 | 17.7 | 0.00 | 0.00 | 0.00 | 46 | 1010.3 |
| 20260505214212 | 10 | 251 | 0.0 | 11.3 | 0.00 | 0.00 | 0.00 | 46 | 1010.3 |
| 20260505214206 | 10 | 259 | 0.0 | 16.1 | 0.00 | 0.00 | 0.00 | 45 | 1010.3 |
| 20260505214132 | 10 | 255 | 0.0 | 16.1 | 0.00 | 0.00 | 0.00 | 44 | 1010.3 |
| 20260505213804 | 10 | 221 | 0.0 | 11.3 | 0.00 | 0.00 | 0.00 | 47 | 1010.3 |
| 20260505213706 | 10 | 224 | 0.0 | 11.3 | 0.00 | 0.00 | 0.00 | 45 | 1010.3 |
| 20260505213406 | 10 | 323 | 0.0 | 11.3 | 0.00 | 0.00 | 0.00 | 46 | 1010.3 |
| 20260505213204 | 10 | 226 | 0.0 | 6.4 | 0.00 | 0.00 | 0.00 | 47 | 1010.4 |
| 20260505213004 | 10 | 245 | 0.0 | 9.7 | 0.00 | 0.00 | 0.00 | 46 | 1010.4 |
| 20260505212909 | 10 | 220 | 0.0 | 9.7 | 0.00 | 0.00 | 0.00 | 44 | 1010.4 |
| 20260505212806 | 10 | 353 | 0.0 | 9.7 | 0.00 | 0.00 | 0.00 | 44 | 1010.4 |
| 20260505212602 | 10 | 353 | 0.0 | 17.7 | 0.00 | 0.00 | 0.00 | 44 | 1010.3 |
| 20260505212406 | 10 | 282 | 0.0 | 17.7 | 0.00 | 0.00 | 0.00 | 45 | 1010.4 |
| 20260505212342 | 10 | 282 | 0.0 | 17.7 | 0.00 | 0.00 | 0.00 | 45 | 1010.3 |
| 20260505212142 | 10 | 238 | 0.0 | 17.7 | 0.00 | 0.00 | 0.00 | 45 | 1010.4 |
| 20260505212039 | 10 | 240 | 0.0 | 17.7 | 0.00 | 0.00 | 0.00 | 48 | 1010.3 |
| 20260505211908 | 10 | 234 | 0.0 | 17.7 | 0.00 | 0.00 | 0.00 | 48 | 1010.3 |
| 20260505211741 | 10 | 241 | 0.0 | 17.7 | 0.00 | 0.00 | 0.00 | 48 | 1010.4 |
| 20260505211541 | 10 | 220 | 0.0 | 8.0 | 0.00 | 0.00 | 0.00 | 46 | 1010.4 |
| 20260505211407 | 10 | 251 | 0.0 | 9.7 | 0.00 | 0.00 | 0.00 | 47 | 1010.2 |
| 20260505211339 | 10 | 210 | 0.0 | 9.7 | 0.00 | 0.00 | 0.00 | 48 | 1010.4 |
| 20260505211129 | 10 | 252 | 0.0 | 9.7 | 0.00 | 0.00 | 0.00 | 48 | 1010.4 |
| 20260505210908 | 10 | 164 | 0.0 | 9.7 | 0.00 | 0.00 | 0.00 | 47 | 1010.5 |
| 20260505210731 | 10 | 164 | 0.0 | 9.7 | 0.00 | 0.00 | 0.00 | 47 | 1010.5 |
| 20260505210530 | 10 | 254 | 0.0 | 9.7 | 0.00 | 0.00 | 0.00 | 47 | 1010.5 |
| 20260505210416 | 10 | 254 | 0.0 | 6.4 | 0.00 | 0.00 | 0.00 | 45 | 1010.6 |
| 20260505210407 | 10 | 247 | 0.0 | 9.7 | 0.00 | 0.00 | 0.00 | 47 | 1010.5 |
| 20260505210215 | 10 | 243 | 0.0 | 16.1 | 0.00 | 0.00 | 0.00 | 45 | 1010.5 |
| 20260505210200 | 10 | 237 | 0.0 | 9.7 | 0.00 | 0.00 | 0.00 | 45 | 1010.5 |
| 20260505210121 | 10 | 228 | 0.0 | 16.1 | 0.00 | 0.00 | 0.00 | 45 | 1010.5 |
| 20260505205714 | 10 | 279 | 0.0 | 16.1 | 0.00 | 0.00 | 0.00 | 45 | 1010.5 |
| 20260505205708 | 10 | 251 | 0.0 | 16.1 | 0.00 | 0.00 | 0.00 | 48 | 1010.5 |
| 20260505205658 | 10 | 257 | 0.0 | 16.1 | 0.00 | 0.00 | 0.00 | 45 | 1010.5 |
| 20260505205640 | 10 | 251 | 0.0 | 16.1 | 0.00 | 0.00 | 0.00 | 48 | 1010.5 |
| 20260505205110 | 10 | 217 | 0.0 | 16.1 | 0.00 | 0.00 | 0.00 | 45 | 1010.5 |
| 20260505204910 | 10 | 238 | 0.0 | 14.5 | 0.00 | 0.00 | 0.00 | 45 | 1010.4 |
| 20260505204709 | 10 | 271 | 0.0 | 11.3 | 0.00 | 0.00 | 0.00 | 47 | 1010.4 |
| 20260505204659 | 10 | 52 | 0.0 | 16.1 | 0.00 | 0.00 | 0.00 | 45 | 1010.4 |
| 20260505204640 | 10 | 0 | 0.0 | 16.1 | 0.00 | 0.00 | 0.00 | 45 | 1010.4 |
| 20260505204308 | 10 | 310 | 0.0 | 16.1 | 0.00 | 0.00 | 0.00 | 45 | 1010.4 |
| 20260505204107 | 10 | 240 | 0.0 | 17.7 | 0.00 | 0.00 | 0.00 | 45 | 1010.5 |
| 20260505203917 | 10 | 247 | 0.0 | 17.7 | 0.00 | 0.00 | 0.00 | 45 | 1010.5 |
| 20260505203811 | 10 | 258 | 0.0 | 17.7 | 0.00 | 0.00 | 0.00 | 46 | 1010.4 |
| 20260505203700 | 10 | 245 | 0.0 | 17.7 | 0.00 | 0.00 | 0.00 | 47 | 1010.5 |
| 20260505203638 | 10 | 276 | 0.0 | 17.7 | 0.00 | 0.00 | 0.00 | 48 | 1010.6 |
| 20260505203307 | 10 | 276 | 0.0 | 17.7 | 0.00 | 0.00 | 0.00 | 47 | 1010.5 |
| 20260505203108 | 10 | 233 | 0.0 | 14.5 | 0.00 | 0.00 | 0.00 | 45 | 1010.6 |
| 20260505202912 | 10 | 281 | 0.0 | 4.8 | 0.00 | 0.00 | 0.00 | 50 | 1010.6 |
| 20260505202656 | 10 | 281 | 0.0 | 11.3 | 0.00 | 0.00 | 0.00 | 50 | 1010.6 |
| 20260505202636 | 10 | 281 | 0.0 | 11.3 | 0.00 | 0.00 | 0.00 | 50 | 1010.6 |
| 20260505202614 | 10 | 281 | 0.0 | 11.3 | 0.00 | 0.00 | 0.00 | 50 | 1010.6 |
| 20260505202233 | 10 | 281 | 0.0 | 11.3 | 0.00 | 0.00 | 0.00 | 50 | 1010.6 |
| 20260505202031 | 9 | 262 | 0.0 | 11.3 | 0.00 | 0.00 | 0.00 | 47 | 1010.7 |
| 20260505201851 | 9 | 262 | 0.0 | 11.3 | 0.00 | 0.00 | 0.00 | 47 | 1010.7 |
| 20260505201804 | 9 | 251 | 0.0 | 11.3 | 0.00 | 0.00 | 0.00 | 48 | 1010.7 |
| 20260505201605 | 9 | 240 | 0.0 | 11.3 | 0.00 | 0.00 | 0.00 | 49 | 1010.6 |
| 20260505201403 | 9 | 240 | 0.0 | 11.3 | 0.00 | 0.00 | 0.00 | 49 | 1010.7 |
| 20260505201351 | 9 | 240 | 0.0 | 11.3 | 0.00 | 0.00 | 0.00 | 49 | 1010.7 |
| 20260505201154 | 9 | 252 | 0.0 | 14.5 | 0.00 | 0.00 | 0.00 | 49 | 1010.7 |
| 20260505200953 | 9 | 268 | 0.0 | 16.1 | 0.00 | 0.00 | 0.00 | 46 | 1010.7 |
| 20260505200851 | 10 | 245 | 0.0 | 16.1 | 0.00 | 0.00 | 0.00 | 46 | 1010.7 |
| 20260505200843 | 9 | 279 | 0.0 | 16.1 | 0.00 | 0.00 | 0.00 | 47 | 1010.7 |
| 20260505200539 | 10 | 228 | 0.0 | 16.1 | 0.00 | 0.00 | 0.00 | 49 | 1010.7 |
| 20260505200340 | 10 | 245 | 0.0 | 16.1 | 0.00 | 0.00 | 0.00 | 49 | 1010.7 |
| 20260505200140 | 10 | 234 | 0.0 | 16.1 | 0.00 | 0.00 | 0.00 | 48 | 1010.6 |
| 20260505195934 | 10 | 230 | 0.0 | 11.3 | 0.00 | 0.00 | 0.00 | 48 | 1010.7 |
| 20260505195838 | 10 | 250 | 0.0 | 11.3 | 0.00 | 0.00 | 0.00 | 48 | 1010.7 |
| 20260505195731 | 10 | 251 | 0.0 | 11.3 | 0.00 | 0.00 | 0.00 | 48 | 1010.7 |
| 20260505195533 | 10 | 221 | 0.0 | 11.3 | 0.00 | 0.00 | 0.00 | 48 | 1010.7 |
| 20260505195333 | 10 | 221 | 0.0 | 11.3 | 0.00 | 0.00 | 0.00 | 48 | 1010.8 |
| 20260505195234 | 9 | 257 | 0.0 | 11.3 | 0.00 | 0.00 | 0.00 | 49 | 1010.7 |
| 20260505194937 | 10 | 259 | 0.0 | 16.1 | 0.00 | 0.00 | 0.00 | 49 | 1010.6 |
| 20260505194804 | 10 | 259 | 0.0 | 16.1 | 0.00 | 0.00 | 0.00 | 49 | 1010.6 |
| 20260505194735 | 10 | 259 | 0.0 | 16.1 | 0.00 | 0.00 | 0.00 | 49 | 1010.6 |
| 20260505194508 | 10 | 259 | 0.0 | 16.1 | 0.00 | 0.00 | 0.00 | 49 | 1010.6 |
| 20260505194308 | 10 | 259 | 0.0 | 16.1 | 0.00 | 0.00 | 0.00 | 49 | 1010.7 |
| 20260505194042 | 10 | 248 | 0.0 | 16.1 | 0.00 | 0.00 | 0.00 | 49 | 1010.8 |
| 20260505193836 | 10 | 235 | 0.0 | 14.5 | 0.00 | 0.00 | 0.00 | 48 | 1010.7 |
| 20260505193739 | 10 | 235 | 0.0 | 14.5 | 0.00 | 0.00 | 0.00 | 48 | 1010.7 |
| 20260505193621 | 10 | 237 | 0.0 | 14.5 | 0.00 | 0.00 | 0.00 | 48 | 1010.7 |
| 20260505193533 | 10 | 243 | 0.0 | 14.5 | 0.00 | 0.00 | 0.00 | 50 | 1010.7 |
| 20260505193528 | 10 | 255 | 0.0 | 14.5 | 0.00 | 0.00 | 0.00 | 49 | 1010.7 |
| 20260505193510 | 10 | 255 | 0.0 | 14.5 | 0.00 | 0.00 | 0.00 | 48 | 1010.7 |
| 20260505193009 | 10 | 247 | 0.0 | 14.5 | 0.00 | 0.00 | 0.00 | 48 | 1010.6 |
| 20260505192807 | 10 | 257 | 0.0 | 11.3 | 0.00 | 0.00 | 0.00 | 47 | 1010.7 |
| 20260505192737 | 10 | 257 | 0.0 | 11.3 | 0.00 | 0.00 | 0.00 | 47 | 1010.7 |
| 20260505192607 | 10 | 257 | 0.0 | 11.3 | 0.00 | 0.00 | 0.00 | 47 | 1010.6 |
| 20260505192518 | 10 | 248 | 0.0 | 14.5 | 0.00 | 0.00 | 0.00 | 47 | 1010.7 |
| 20260505192501 | 10 | 258 | 0.0 | 11.3 | 0.00 | 0.00 | 0.00 | 47 | 1010.8 |
| 20260505192142 | 10 | 258 | 0.0 | 14.5 | 0.00 | 0.00 | 0.00 | 50 | 1010.7 |
| 20260505191942 | 10 | 238 | 0.0 | 14.5 | 0.00 | 0.00 | 0.00 | 48 | 1010.7 |
| 20260505191739 | 10 | 244 | 0.0 | 14.5 | 0.00 | 0.00 | 0.00 | 48 | 1010.6 |
| 20260505191734 | 10 | 228 | 0.0 | 14.5 | 0.00 | 0.00 | 0.00 | 48 | 1010.6 |
| 20260505191637 | 10 | 252 | 0.0 | 14.5 | 0.00 | 0.00 | 0.00 | 46 | 1010.6 |
| 20260505191521 | 10 | 258 | 0.0 | 11.3 | 0.00 | 0.00 | 0.00 | 49 | 1010.7 |
| 20260505191458 | 10 | 252 | 0.0 | 14.5 | 0.00 | 0.00 | 0.00 | 49 | 1010.6 |
| 20260505191136 | 10 | 247 | 0.0 | 11.3 | 0.00 | 0.00 | 0.00 | 54 | 1010.7 |
| 20260505190936 | 10 | 224 | 0.0 | 11.3 | 0.00 | 0.00 | 0.00 | 54 | 1010.7 |
| 20260505190733 | 10 | 224 | 0.0 | 17.7 | 0.00 | 0.00 | 0.00 | 54 | 1010.6 |
| 20260505190531 | 10 | 231 | 0.0 | 17.7 | 0.00 | 0.00 | 0.00 | 52 | 1010.6 |
| 20260505190526 | 10 | 244 | 0.0 | 22.5 | 0.00 | 0.00 | 0.00 | 49 | 1010.8 |
| 20260505190454 | 10 | 254 | 0.0 | 22.5 | 0.00 | 0.00 | 0.00 | 49 | 1010.7 |
| 20260505190130 | 10 | 257 | 0.0 | 22.5 | 0.00 | 0.00 | 0.00 | 49 | 1010.7 |
| 20260505185930 | 10 | 221 | 0.0 | 22.5 | 0.00 | 0.00 | 0.00 | 52 | 1010.7 |
| 20260505185732 | 9 | 212 | 0.0 | 22.5 | 0.00 | 0.00 | 0.00 | 50 | 1010.8 |
| 20260505185530 | 9 | 262 | 0.0 | 22.5 | 0.00 | 0.00 | 0.00 | 47 | 1010.8 |
| 20260505185434 | 9 | 240 | 0.0 | 16.1 | 0.00 | 0.00 | 0.00 | 48 | 1010.8 |
| 20260505185234 | 9 | 202 | 0.0 | 16.1 | 0.00 | 0.00 | 0.00 | 49 | 1010.8 |
| 20260505185139 | 9 | 237 | 0.0 | 16.1 | 0.00 | 0.00 | 0.00 | 49 | 1010.8 |
| 20260505185019 | 10 | 252 | 0.0 | 16.1 | 0.00 | 0.00 | 0.00 | 46 | 1010.9 |
| 20260505185007 | 9 | 248 | 0.0 | 16.1 | 0.00 | 0.00 | 0.00 | 48 | 1010.8 |
| 20260505184707 | 10 | 264 | 0.0 | 16.1 | 0.00 | 0.00 | 0.00 | 46 | 1010.9 |
| 20260505184504 | 10 | 250 | 0.0 | 16.1 | 0.00 | 0.00 | 0.00 | 47 | 1010.8 |
| 20260505184253 | 10 | 245 | 0.0 | 16.1 | 0.00 | 0.00 | 0.00 | 50 | 1010.8 |
| 20260505184230 | 10 | 264 | 0.0 | 16.1 | 0.00 | 0.00 | 0.00 | 49 | 1010.8 |
| 20260505184058 | 10 | 248 | 0.0 | 20.9 | 0.00 | 0.00 | 0.00 | 49 | 1010.9 |
| 20260505184032 | 9 | 237 | 0.0 | 24.1 | 0.00 | 0.00 | 0.00 | 49 | 1010.7 |
| 20260505184027 | 9 | 220 | 0.0 | 24.1 | 0.00 | 0.00 | 0.00 | 49 | 1010.7 |
| 20260505184002 | 9 | 257 | 0.0 | 24.1 | 0.00 | 0.00 | 0.00 | 47 | 1010.8 |
| 20260505183441 | 9 | 228 | 0.0 | 24.1 | 0.00 | 0.00 | 0.00 | 46 | 1010.7 |
| 20260505183233 | 9 | 238 | 0.0 | 24.1 | 0.00 | 0.00 | 0.00 | 46 | 1010.8 |
| 20260505183038 | 10 | 251 | 0.0 | 24.1 | 0.00 | 0.00 | 0.00 | 45 | 1010.6 |
| 20260505183028 | 10 | 258 | 0.0 | 19.3 | 0.00 | 0.00 | 0.00 | 44 | 1010.6 |
| 20260505183004 | 10 | 283 | 0.0 | 20.9 | 0.00 | 0.00 | 0.00 | 44 | 1010.7 |
| 20260505182634 | 10 | 254 | 0.0 | 19.3 | 0.00 | 0.00 | 0.00 | 46 | 1010.6 |
| 20260505182430 | 10 | 257 | 0.0 | 16.1 | 0.00 | 0.00 | 0.00 | 48 | 1010.6 |
| 20260505182232 | 10 | 258 | 0.0 | 16.1 | 0.00 | 0.00 | 0.00 | 44 | 1010.8 |
| 20260505182128 | 10 | 289 | 0.0 | 16.1 | 0.00 | 0.00 | 0.00 | 47 | 1010.6 |
| 20260505181831 | 10 | 251 | 0.0 | 16.1 | 0.00 | 0.00 | 0.00 | 44 | 1010.7 |
| 20260505181731 | 10 | 271 | 0.0 | 16.1 | 0.00 | 0.00 | 0.00 | 43 | 1010.6 |
| 20260505181632 | 11 | 257 | 0.0 | 16.1 | 0.00 | 0.00 | 0.00 | 44 | 1010.7 |
| 20260505181428 | 11 | 266 | 0.0 | 11.3 | 0.00 | 0.00 | 0.00 | 48 | 1010.6 |
| 20260505181232 | 11 | 243 | 0.0 | 11.3 | 0.00 | 0.00 | 0.00 | 52 | 1010.7 |
| 20260505181026 | 10 | 248 | 0.0 | 11.3 | 0.00 | 0.00 | 0.00 | 48 | 1010.7 |
| 20260505180827 | 10 | 220 | 0.0 | 20.9 | 0.00 | 0.00 | 0.00 | 46 | 1010.7 |
| 20260505180727 | 10 | 125 | 0.0 | 20.9 | 0.00 | 0.00 | 0.00 | 51 | 1010.6 |
| 20260505180623 | 10 | 54 | 0.0 | 20.9 | 0.00 | 0.00 | 0.00 | 47 | 1010.7 |
| 20260505180427 | 10 | 241 | 0.0 | 20.9 | 0.00 | 0.00 | 0.00 | 45 | 1010.7 |
| 20260505180331 | 10 | 241 | 0.0 | 20.9 | 0.00 | 0.00 | 0.00 | 45 | 1010.6 |
| 20260505180229 | 10 | 241 | 0.0 | 20.9 | 0.00 | 0.00 | 0.00 | 45 | 1010.6 |
| 20260505180032 | 10 | 241 | 0.0 | 20.9 | 0.00 | 0.00 | 0.00 | 45 | 1010.6 |
| 20260505175827 | 10 | 247 | 0.0 | 6.4 | 0.00 | 0.00 | 0.00 | 45 | 1010.6 |
| 20260505175726 | 10 | 248 | 0.0 | 3.2 | 0.00 | 0.00 | 0.00 | 44 | 1010.6 |
| 20260505175626 | 10 | 293 | 0.0 | 6.4 | 0.00 | 0.00 | 0.00 | 46 | 1010.7 |
| 20260505175427 | 10 | 238 | 0.0 | 20.9 | 0.00 | 0.00 | 0.00 | 43 | 1010.7 |
| 20260505175228 | 10 | 238 | 0.0 | 20.9 | 0.00 | 0.00 | 0.00 | 43 | 1010.7 |
| 20260505175027 | 9 | 292 | 0.0 | 20.9 | 0.00 | 0.00 | 0.00 | 43 | 1010.7 |
| 20260505174828 | 9 | 292 | 0.0 | 20.9 | 0.00 | 0.00 | 0.00 | 43 | 1010.7 |
| 20260505174731 | 9 | 278 | 0.0 | 20.9 | 0.00 | 0.00 | 0.00 | 43 | 1010.7 |
| 20260505174727 | 9 | 292 | 0.0 | 20.9 | 0.00 | 0.00 | 0.00 | 43 | 1010.7 |
| 20260505174425 | 10 | 262 | 0.0 | 20.9 | 0.00 | 0.00 | 0.00 | 44 | 1010.7 |
| 20260505174229 | 10 | 238 | 0.0 | 11.3 | 0.00 | 0.00 | 0.00 | 48 | 1010.6 |
| 20260505174026 | 10 | 286 | 0.0 | 11.3 | 0.00 | 0.00 | 0.00 | 48 | 1010.7 |
| 20260505173830 | 9 | 251 | 0.0 | 11.3 | 0.00 | 0.00 | 0.00 | 48 | 1010.7 |
| 20260505173727 | 9 | 251 | 0.0 | 14.5 | 0.00 | 0.00 | 0.00 | 48 | 1010.6 |
| 20260505173628 | 9 | 251 | 0.0 | 14.5 | 0.00 | 0.00 | 0.00 | 48 | 1010.7 |
| 20260505173518 | 8 | 217 | 0.0 | 17.7 | 0.00 | 0.00 | 0.00 | 48 | 1010.7 |
| 20260505173506 | 9 | 251 | 0.0 | 14.5 | 0.00 | 0.00 | 0.00 | 48 | 1010.6 |
| 20260505173440 | 8 | 217 | 0.0 | 17.7 | 0.00 | 0.00 | 0.00 | 48 | 1010.7 |
| 20260505173029 | 8 | 217 | 0.0 | 17.7 | 0.00 | 0.00 | 0.00 | 48 | 1010.8 |
| 20260505172826 | 8 | 217 | 0.0 | 17.7 | 0.00 | 0.00 | 0.00 | 48 | 1010.8 |
| 20260505172725 | 8 | 230 | 0.0 | 17.7 | 0.00 | 0.00 | 0.00 | 47 | 1010.8 |
| 20260505172626 | 8 | 269 | 0.0 | 17.7 | 0.00 | 0.00 | 0.00 | 47 | 1010.7 |
| 20260505172526 | 8 | 261 | 0.0 | 19.3 | 0.00 | 0.00 | 0.00 | 45 | 1010.8 |
| 20260505172511 | 8 | 220 | 0.0 | 17.7 | 0.00 | 0.00 | 0.00 | 47 | 1010.7 |
| 20260505172033 | 9 | 248 | 0.0 | 19.3 | 0.00 | 0.00 | 0.00 | 46 | 1010.7 |
| 20260505171826 | 9 | 272 | 0.0 | 19.3 | 0.00 | 0.00 | 0.00 | 46 | 1010.7 |
| 20260505171727 | 9 | 272 | 0.0 | 19.3 | 0.00 | 0.00 | 0.00 | 46 | 1010.8 |
| 20260505171627 | 9 | 314 | 0.0 | 19.3 | 0.00 | 0.00 | 0.00 | 46 | 1010.7 |
| 20260505171527 | 10 | 257 | 0.0 | 19.3 | 0.00 | 0.00 | 0.00 | 44 | 1010.8 |
| 20260505171512 | 9 | 241 | 0.0 | 19.3 | 0.00 | 0.00 | 0.00 | 44 | 1010.7 |
| 20260505171438 | 10 | 257 | 0.0 | 19.3 | 0.00 | 0.00 | 0.00 | 44 | 1010.8 |
| 20260505171037 | 10 | 252 | 0.0 | 19.3 | 0.00 | 0.00 | 0.00 | 46 | 1010.8 |
| 20260505170826 | 9 | 231 | 0.0 | 19.3 | 0.00 | 0.00 | 0.00 | 51 | 1010.8 |
| 20260505170731 | 8 | 257 | 0.0 | 11.3 | 0.00 | 0.00 | 0.00 | 49 | 1010.8 |
| 20260505170725 | 9 | 228 | 0.0 | 11.3 | 0.00 | 0.00 | 0.00 | 49 | 1010.8 |
| 20260505170529 | 8 | 241 | 0.0 | 14.5 | 0.00 | 0.00 | 0.00 | 47 | 1010.8 |
| 20260505170512 | 8 | 265 | 0.0 | 14.5 | 0.00 | 0.00 | 0.00 | 48 | 1010.8 |
| 20260505170439 | 8 | 241 | 0.0 | 14.5 | 0.00 | 0.00 | 0.00 | 47 | 1010.8 |
| 20260505170031 | 8 | 241 | 0.0 | 14.5 | 0.00 | 0.00 | 0.00 | 47 | 1010.9 |
| 20260505165825 | 9 | 258 | 0.0 | 14.5 | 0.00 | 0.00 | 0.00 | 46 | 1010.9 |
| 20260505165725 | 9 | 252 | 0.0 | 14.5 | 0.00 | 0.00 | 0.00 | 46 | 1010.8 |
| 20260505165625 | 9 | 226 | 0.0 | 14.5 | 0.00 | 0.00 | 0.00 | 46 | 1010.8 |
| 20260505165528 | 9 | 265 | 0.0 | 14.5 | 0.00 | 0.00 | 0.00 | 47 | 1010.9 |
| 20260505165510 | 9 | 135 | 0.0 | 14.5 | 0.00 | 0.00 | 0.00 | 51 | 1010.8 |
| 20260505165437 | 9 | 265 | 0.0 | 14.5 | 0.00 | 0.00 | 0.00 | 47 | 1010.9 |
| 20260505165137 | 9 | 252 | 0.0 | 6.4 | 0.00 | 0.00 | 0.00 | 47 | 1010.8 |
| 20260505164829 | 10 | 227 | 0.0 | 11.3 | 0.00 | 0.00 | 0.00 | 45 | 1010.9 |
| 20260505164727 | 10 | 227 | 0.0 | 11.3 | 0.00 | 0.00 | 0.00 | 45 | 1010.8 |
| 20260505164611 | 10 | 227 | 0.0 | 11.3 | 0.00 | 0.00 | 0.00 | 45 | 1010.9 |
| 20260505164454 | 10 | 227 | 0.0 | 14.5 | 0.00 | 0.00 | 0.00 | 45 | 1010.9 |
| 20260505164444 | 10 | 227 | 0.0 | 14.5 | 0.00 | 0.00 | 0.00 | 45 | 1010.9 |
| 20260505164205 | 10 | 227 | 0.0 | 14.5 | 0.00 | 0.00 | 0.00 | 45 | 1010.8 |
| 20260505164005 | 10 | 227 | 0.0 | 14.5 | 0.00 | 0.00 | 0.00 | 45 | 1010.8 |
| 20260505163807 | 10 | 255 | 0.0 | 14.5 | 0.00 | 0.00 | 0.00 | 50 | 1010.8 |
| 20260505163708 | 9 | 250 | 0.0 | 14.5 | 0.00 | 0.00 | 0.00 | 52 | 1010.8 |
| 20260505163607 | 9 | 226 | 0.0 | 14.5 | 0.00 | 0.00 | 0.00 | 46 | 1010.8 |
| 20260505163556 | 9 | 230 | 0.0 | 14.5 | 0.00 | 0.00 | 0.00 | 47 | 1010.9 |
| 20260505163509 | 8 | 261 | 0.0 | 8.0 | 0.00 | 0.00 | 0.00 | 46 | 1010.8 |
| 20260505163209 | 8 | 261 | 0.0 | 8.0 | 0.00 | 0.00 | 0.00 | 46 | 1010.8 |
| 20260505163009 | 8 | 261 | 0.0 | 8.0 | 0.00 | 0.00 | 0.00 | 46 | 1010.9 |
| 20260505162744 | 8 | 271 | 0.0 | 14.5 | 0.00 | 0.00 | 0.00 | 45 | 1010.9 |
| 20260505162705 | 8 | 271 | 0.0 | 19.3 | 0.00 | 0.00 | 0.00 | 45 | 1010.9 |
| 20260505162540 | 9 | 231 | 0.0 | 19.3 | 0.00 | 0.00 | 0.00 | 43 | 1011.0 |
| 20260505162343 | 10 | 226 | 0.0 | 19.3 | 0.00 | 0.00 | 0.00 | 48 | 1011.0 |
| 20260505162206 | 9 | 228 | 0.0 | 19.3 | 0.00 | 0.00 | 0.00 | 50 | 1011.0 |
| 20260505162131 | 9 | 228 | 0.0 | 19.3 | 0.00 | 0.00 | 0.00 | 49 | 1011.0 |
| 20260505161935 | 8 | 228 | 0.0 | 19.3 | 0.00 | 0.00 | 0.00 | 45 | 1011.0 |
| 20260505161728 | 8 | 226 | 0.0 | 19.3 | 0.00 | 0.00 | 0.00 | 47 | 1011.0 |
| 20260505161708 | 8 | 257 | 0.0 | 17.7 | 0.00 | 0.00 | 0.00 | 47 | 1010.9 |
| 20260505161514 | 8 | 248 | 0.0 | 17.7 | 0.00 | 0.00 | 0.00 | 49 | 1010.9 |
| 20260505161316 | 8 | 276 | 0.0 | 16.1 | 0.00 | 0.00 | 0.00 | 47 | 1011.0 |
| 20260505161203 | 8 | 227 | 0.0 | 16.1 | 0.00 | 0.00 | 0.00 | 45 | 1010.8 |
| 20260505161113 | 8 | 247 | 0.0 | 16.1 | 0.00 | 0.00 | 0.00 | 44 | 1010.8 |
| 20260505160911 | 9 | 248 | 0.0 | 16.1 | 0.00 | 0.00 | 0.00 | 52 | 1010.9 |
| 20260505160708 | 9 | 259 | 0.0 | 8.0 | 0.00 | 0.00 | 0.00 | 52 | 1010.9 |
| 20260505160507 | 9 | 259 | 0.0 | 8.0 | 0.00 | 0.00 | 0.00 | 52 | 1010.9 |
| 20260505160304 | 8 | 252 | 0.0 | 6.4 | 0.00 | 0.00 | 0.00 | 49 | 1010.8 |
| 20260505160200 | 8 | 199 | 0.0 | 4.8 | 0.00 | 0.00 | 0.00 | 48 | 1010.9 |
| 20260505160136 | 8 | 200 | 0.0 | 4.8 | 0.00 | 0.00 | 0.00 | 48 | 1010.9 |
| 20260505153209 | 8 | 79 | 0.0 | 6.4 | 0.00 | 0.00 | 0.00 | 47 | 1010.9 |
| 20260505153111 | 8 | 255 | 0.0 | 9.7 | 0.00 | 0.00 | 0.00 | 51 | 1010.7 |
| 20260505153011 | 8 | 255 | 0.0 | 9.7 | 0.00 | 0.00 | 0.00 | 51 | 1010.8 |
| 20260505152908 | 8 | 252 | 0.0 | 9.7 | 0.00 | 0.00 | 0.00 | 51 | 1010.8 |
| 20260505152604 | 8 | 228 | 0.0 | 9.7 | 0.00 | 0.00 | 0.00 | 50 | 1010.8 |
| 20260505152535 | 8 | 228 | 0.0 | 9.7 | 0.00 | 0.00 | 0.00 | 50 | 1010.8 |
| 20260505152335 | 8 | 228 | 0.0 | 9.7 | 0.00 | 0.00 | 0.00 | 50 | 1010.9 |
| 20260505152103 | 8 | 233 | 0.0 | 8.0 | 0.00 | 0.00 | 0.00 | 54 | 1010.8 |
| 20260505151911 | 8 | 235 | 0.0 | 8.0 | 0.00 | 0.00 | 0.00 | 54 | 1010.7 |
| 20260505151710 | 8 | 235 | 0.0 | 8.0 | 0.00 | 0.00 | 0.00 | 54 | 1010.8 |
| 20260505151602 | 8 | 202 | 0.0 | 8.0 | 0.00 | 0.00 | 0.00 | 48 | 1010.7 |
| 20260505151510 | 8 | 200 | 0.0 | 8.0 | 0.00 | 0.00 | 0.00 | 48 | 1010.7 |
| 20260505151310 | 8 | 228 | 0.0 | 14.5 | 0.00 | 0.00 | 0.00 | 51 | 1010.8 |
| 20260505151209 | 8 | 259 | 0.0 | 14.5 | 0.00 | 0.00 | 0.00 | 50 | 1010.7 |
| 20260505151032 | 8 | 261 | 0.0 | 14.5 | 0.00 | 0.00 | 0.00 | 51 | 1010.7 |
| 20260505150910 | 8 | 178 | 0.0 | 14.5 | 0.00 | 0.00 | 0.00 | 51 | 1010.7 |
| 20260505150712 | 7 | 262 | 0.0 | 14.5 | 0.00 | 0.00 | 0.00 | 50 | 1010.7 |
| 20260505150542 | 7 | 279 | 0.0 | 14.5 | 0.00 | 0.00 | 0.00 | 51 | 1010.7 |
| 20260505150511 | 7 | 244 | 0.0 | 14.5 | 0.00 | 0.00 | 0.00 | 51 | 1010.7 |
| 20260505150311 | 7 | 276 | 0.0 | 14.5 | 0.00 | 0.00 | 0.00 | 54 | 1010.8 |
| 20260505150104 | 7 | 223 | 0.0 | 11.3 | 0.00 | 0.00 | 0.00 | 53 | 1010.7 |
| 20260505140534 | 7 | 250 | 0.0 | 3.2 | 0.00 | 0.00 | 0.00 | 52 | 1010.3 |
| 20260505140432 | 7 | 221 | 0.0 | 3.2 | 0.00 | 0.00 | 0.00 | 51 | 1010.4 |
| 20260505140335 | 7 | 76 | 0.0 | 3.2 | 0.00 | 0.00 | 0.00 | 53 | 1010.3 |
| 20260505140207 | 7 | 76 | 0.0 | 4.8 | 0.00 | 0.00 | 0.00 | 53 | 1010.3 |
| 20260505130308 | 6 | 196 | 0.0 | 3.2 | 0.00 | 0.00 | 0.00 | 56 | 1009.9 |
| 20260505130122 | 6 | 196 | 0.0 | 3.2 | 0.00 | 0.00 | 0.00 | 56 | 1009.9 |
| 20260505130115 | 6 | 196 | 0.0 | 3.2 | 0.00 | 0.00 | 0.00 | 56 | 1009.9 |
| 20260505125027 | 5 | 149 | 0.0 | 4.8 | 0.00 | 0.00 | 0.00 | 60 | 1009.8 |
| 20260505124630 | 5 | 340 | 0.0 | 4.8 | 0.00 | 0.00 | 0.00 | 61 | 1009.8 |
| 20260505124431 | 5 | 340 | 0.0 | 4.8 | 0.00 | 0.00 | 0.00 | 62 | 1009.8 |
| 20260505124327 | 5 | 282 | 0.0 | 4.8 | 0.00 | 0.00 | 0.00 | 62 | 1009.8 |
| 20260505124310 | 5 | 340 | 0.0 | 4.8 | 0.00 | 0.00 | 0.00 | 62 | 1009.8 |
| 20260505124105 | 5 | 0 | 0.0 | 8.0 | 0.00 | 0.00 | 0.00 | 64 | 1009.7 |
| 20260505124052 | 5 | 241 | 0.0 | 3.2 | 0.00 | 0.00 | 0.00 | 64 | 1009.7 |
| 20260505124022 | 5 | 0 | 0.0 | 8.0 | 0.00 | 0.00 | 0.00 | 64 | 1009.7 |
| 20260505123627 | 5 | 0 | 0.0 | 8.0 | 0.00 | 0.00 | 0.00 | 65 | 1009.6 |
| 20260505123421 | 5 | 0 | 0.0 | 8.0 | 0.00 | 0.00 | 0.00 | 66 | 1009.6 |
| 20260505123305 | 5 | 0 | 0.0 | 8.0 | 0.00 | 0.00 | 0.00 | 67 | 1009.5 |
| 20260505123220 | 4 | 0 | 0.0 | 8.0 | 0.00 | 0.00 | 0.00 | 67 | 1009.6 |
| 20260505123107 | 4 | 226 | 0.0 | 3.2 | 0.00 | 0.00 | 0.00 | 68 | 1009.5 |
| 20260505123054 | 4 | 0 | 0.0 | 8.0 | 0.00 | 0.00 | 0.00 | 67 | 1009.5 |
| 20260505123021 | 4 | 226 | 0.0 | 3.2 | 0.00 | 0.00 | 0.00 | 68 | 1009.5 |
| 20260505122715 | 4 | 226 | 0.0 | 3.2 | 0.00 | 0.00 | 0.00 | 68 | 1009.5 |
| 20260505122408 | 4 | 226 | 0.0 | 3.2 | 0.00 | 0.00 | 0.00 | 69 | 1009.4 |
| 20260505122305 | 4 | 226 | 0.0 | 6.4 | 0.00 | 0.00 | 0.00 | 69 | 1009.4 |
| 20260505122203 | 4 | 226 | 0.0 | 6.4 | 0.00 | 0.00 | 0.00 | 69 | 1009.3 |
| 20260505122104 | 3 | 196 | 0.0 | 6.4 | 0.00 | 0.00 | 0.00 | 71 | 1009.3 |
| 20260505122050 | 4 | 197 | 0.0 | 6.4 | 0.00 | 0.00 | 0.00 | 70 | 1009.3 |
| 20260505122016 | 3 | 196 | 0.0 | 6.4 | 0.00 | 0.00 | 0.00 | 71 | 1009.3 |
| 20260505121602 | 3 | 196 | 0.0 | 6.4 | 0.00 | 0.00 | 0.00 | 71 | 1009.3 |
| 20260505121403 | 3 | 196 | 0.0 | 6.4 | 0.00 | 0.00 | 0.00 | 72 | 1009.2 |
| 20260505121259 | 3 | 192 | 0.0 | 3.2 | 0.00 | 0.00 | 0.00 | 72 | 1009.2 |
| 20260505121203 | 3 | 192 | 0.0 | 3.2 | 0.00 | 0.00 | 0.00 | 73 | 1009.2 |
| 20260505121101 | 3 | 192 | 0.0 | 3.2 | 0.00 | 0.00 | 0.00 | 73 | 1009.2 |
| 20260505120806 | 3 | 192 | 0.0 | 3.2 | 0.00 | 0.00 | 0.00 | 72 | 1009.1 |
| 20260505120801 | 3 | 192 | 0.0 | 3.2 | 0.00 | 0.00 | 0.00 | 72 | 1009.1 |
| 20260505120601 | 3 | 192 | 0.0 | 1.6 | 0.00 | 0.00 | 0.00 | 72 | 1009.2 |
| 20260505120403 | 3 | 192 | 0.0 | 1.6 | 0.00 | 0.00 | 0.00 | 73 | 1009.1 |
| 20260505120306 | 3 | 192 | 0.0 | 1.6 | 0.00 | 0.00 | 0.00 | 73 | 1009.1 |
| 20260505120301 | 3 | 192 | 0.0 | 1.6 | 0.00 | 0.00 | 0.00 | 73 | 1009.0 |
| 20260505120004 | 3 | 192 | 0.0 | 1.6 | 0.00 | 0.00 | 0.00 | 74 | 1009.0 |
| 20260505115807 | 3 | 192 | 0.0 | 1.6 | 0.00 | 0.00 | 0.00 | 75 | 1009.1 |
| 20260505115757 | 3 | 192 | 0.0 | 1.6 | 0.00 | 0.00 | 0.00 | 75 | 1009.1 |
| 20260505115607 | 3 | 192 | 0.0 | 1.6 | 0.00 | 0.00 | 0.00 | 75 | 1009.0 |
| 20260505115405 | 3 | 192 | 0.0 | 1.6 | 0.00 | 0.00 | 0.00 | 75 | 1009.1 |
| 20260505115256 | -17 | 190 | 0.0 | 1.6 | 0.00 | 0.00 | 0.00 | 1009.0 | |
| 20260505115205 | 2 | 190 | 0.0 | 1.6 | 0.00 | 0.00 | 0.00 | 77 | 1009.0 |
| 20260505115006 | 2 | 190 | 0.0 | 1.6 | 0.00 | 0.00 | 0.00 | 77 | 1008.9 |
| 20260505114807 | 2 | 190 | 0.0 | 1.6 | 0.00 | 0.00 | 0.00 | 77 | 1009.0 |
| 20260505114742 | 2 | 190 | 0.0 | 1.6 | 0.00 | 0.00 | 0.00 | 77 | 1009.0 |
| 20260505114650 | 2 | 190 | 0.0 | 1.6 | 0.00 | 0.00 | 0.00 | 77 | 1008.8 |
| 20260505114348 | 2 | 190 | 0.0 | 1.6 | 0.00 | 0.00 | 0.00 | 77 | 1008.9 |
| 20260505114243 | 2 | 190 | 0.0 | 1.6 | 0.00 | 0.00 | 0.00 | 77 | 1008.8 |
| 20260505114145 | 2 | 190 | 0.0 | 1.6 | 0.00 | 0.00 | 0.00 | 77 | 1008.8 |
| 20260505113945 | 2 | 190 | 0.0 | 0.0 | 0.00 | 0.00 | 0.00 | 77 | 1008.7 |
| 20260505113745 | 2 | 190 | 0.0 | 0.0 | 0.00 | 0.00 | 0.00 | 77 | 1008.6 |
| 20260505113545 | 2 | 190 | 0.0 | 0.0 | 0.00 | 0.00 | 0.00 | 77 | 1008.7 |
| 20260505113524 | 2 | 190 | 0.0 | 0.0 | 0.00 | 0.00 | 0.00 | 77 | 1008.6 |
| 20260505113505 | 2 | 190 | 0.0 | 0.0 | 0.00 | 0.00 | 0.00 | 77 | 1008.6 |
| 20260505113146 | 2 | 190 | 0.0 | 0.0 | 0.00 | 0.00 | 0.00 | 77 | 1008.5 |
| 20260505112946 | 2 | 190 | 0.0 | 0.0 | 0.00 | 0.00 | 0.00 | 77 | 1008.6 |
| 20260505112746 | 2 | 190 | 0.0 | 0.0 | 0.00 | 0.00 | 0.00 | 77 | 1008.6 |
| 20260505112643 | 2 | 190 | 0.0 | 0.0 | 0.00 | 0.00 | 0.00 | 77 | 1008.5 |
| 20260505112341 | 2 | 190 | 0.0 | 0.0 | 0.00 | 0.00 | 0.00 | 76 | 1008.4 |
| 20260505112236 | 2 | 190 | 0.0 | 0.0 | 0.00 | 0.00 | 0.00 | 76 | 1008.4 |
| 20260505112136 | 2 | 190 | 0.0 | 0.0 | 0.00 | 0.00 | 0.00 | 76 | 1008.5 |
| 20260505111937 | 2 | 190 | 0.0 | 0.0 | 0.00 | 0.00 | 0.00 | 76 | 1008.5 |
| 20260505111734 | 2 | 190 | 0.0 | 0.0 | 0.00 | 0.00 | 0.00 | 76 | 1008.3 |
| 20260505111536 | 2 | 190 | 0.0 | 0.0 | 0.00 | 0.00 | 0.00 | 76 | 1008.2 |
| 20260505111334 | 2 | 190 | 0.0 | 0.0 | 0.00 | 0.00 | 0.00 | 76 | 1008.3 |
| 20260505111230 | 2 | 190 | 0.0 | 0.0 | 0.00 | 0.00 | 0.00 | 76 | 1008.3 |
| 20260505111142 | 2 | 190 | 0.0 | 0.0 | 0.00 | 0.00 | 0.00 | 76 | 1008.3 |
| 20260505111025 | 2 | 190 | 0.0 | 0.0 | 0.00 | 0.00 | 0.00 | 76 | 1008.3 |
| 20260505110711 | 2 | 190 | 0.0 | 0.0 | 0.00 | 0.00 | 0.00 | 76 | 1008.2 |
| 20260505110527 | 2 | 190 | 0.0 | 0.0 | 0.00 | 0.00 | 0.00 | 75 | 1008.2 |
| 20260505110328 | 2 | 190 | 0.0 | 0.0 | 0.00 | 0.00 | 0.00 | 76 | 1008.2 |
| 20260505110210 | 2 | 190 | 0.0 | 1.6 | 0.00 | 0.00 | 0.00 | 76 | 1008.3 |
| 20260505110121 | 2 | 190 | 0.0 | 1.6 | 0.00 | 0.00 | 0.00 | 76 | 1008.2 |
| 20260505102207 | 3 | 189 | 0.0 | 1.6 | 0.00 | 0.00 | 0.00 | 73 | 1008.0 |
| 20260505102203 | 3 | 189 | 0.0 | 1.6 | 0.00 | 0.00 | 0.00 | 73 | 1008.0 |
| 20260505102001 | 3 | 189 | 0.0 | 1.6 | 0.00 | 0.00 | 0.00 | 73 | 1008.0 |
| 20260505101924 | 3 | 189 | 0.0 | 1.6 | 0.00 | 0.00 | 0.00 | 73 | 1008.0 |
| 20260505101604 | 3 | 189 | 0.0 | 1.6 | 0.00 | 0.00 | 0.00 | 72 | 1007.9 |
| 20260505101402 | 3 | 189 | 0.0 | 1.6 | 0.00 | 0.00 | 0.00 | 72 | 1007.9 |
| 20260505101303 | 3 | 189 | 0.0 | 1.6 | 0.00 | 0.00 | 0.00 | 72 | 1008.1 |
| 20260505101203 | 3 | 189 | 0.0 | 1.6 | 0.00 | 0.00 | 0.00 | 72 | 1008.0 |
| 20260505101001 | 3 | 189 | 0.0 | 1.6 | 0.00 | 0.00 | 0.00 | 72 | 1008.0 |
| 20260505100925 | 3 | 189 | 0.0 | 0.0 | 0.00 | 0.00 | 0.00 | 72 | 1008.0 |
| 20260505100605 | 3 | 189 | 0.0 | 0.0 | 0.00 | 0.00 | 0.00 | 71 | 1008.0 |
| 20260505100401 | 3 | 189 | 0.0 | 0.0 | 0.00 | 0.00 | 0.00 | 71 | 1007.9 |
| 20260505100206 | 3 | 189 | 0.0 | 0.0 | 0.00 | 0.00 | 0.00 | 71 | 1007.9 |
| 20260505100201 | 3 | 189 | 0.0 | 0.0 | 0.00 | 0.00 | 0.00 | 71 | 1007.9 |
| 20260505100002 | 3 | 189 | 0.0 | 0.0 | 0.00 | 0.00 | 0.00 | 71 | 1008.0 |
| 20260505095802 | 3 | 189 | 0.0 | 0.0 | 0.00 | 0.00 | 0.00 | 71 | 1007.9 |
| 20260505095700 | 3 | 189 | 0.0 | 0.0 | 0.00 | 0.00 | 0.00 | 71 | 1008.0 |
| 20260505095603 | 3 | 189 | 0.0 | 3.2 | 0.00 | 0.00 | 0.00 | 71 | 1007.9 |
| 20260505095402 | 3 | 189 | 0.0 | 3.2 | 0.00 | 0.00 | 0.00 | 71 | 1008.0 |
| 20260505095207 | 3 | 189 | 0.0 | 3.2 | 0.00 | 0.00 | 0.00 | 71 | 1007.9 |
| 20260505095203 | 3 | 189 | 0.0 | 3.2 | 0.00 | 0.00 | 0.00 | 71 | 1007.9 |
| 20260505095103 | 3 | 189 | 0.0 | 3.2 | 0.00 | 0.00 | 0.00 | 71 | 1007.9 |
| 20260505094800 | 3 | 189 | 0.0 | 3.2 | 0.00 | 0.00 | 0.00 | 71 | 1008.0 |
| 20260505094702 | 3 | 189 | 0.0 | 3.2 | 0.00 | 0.00 | 0.00 | 70 | 1008.0 |
| 20260505094602 | 3 | 186 | 0.0 | 1.6 | 0.00 | 0.00 | 0.00 | 70 | 1008.0 |
| 20260505094401 | 3 | 186 | 0.0 | 0.0 | 0.00 | 0.00 | 0.00 | 70 | 1008.0 |
| 20260505094205 | 3 | 186 | 0.0 | 0.0 | 0.00 | 0.00 | 0.00 | 70 | 1007.9 |
| 20260505094201 | 3 | 186 | 0.0 | 0.0 | 0.00 | 0.00 | 0.00 | 70 | 1007.9 |
| 20260505094001 | 3 | 186 | 0.0 | 1.6 | 0.00 | 0.00 | 0.00 | 70 | 1008.0 |
| 20260505093800 | 3 | 186 | 0.0 | 1.6 | 0.00 | 0.00 | 0.00 | 70 | 1007.8 |
| 20260505093700 | 3 | 186 | 0.0 | 1.6 | 0.00 | 0.00 | 0.00 | 70 | 1007.8 |
| 20260505093604 | 3 | 247 | 0.0 | 1.6 | 0.00 | 0.00 | 0.00 | 70 | 1007.8 |
| 20260505093504 | 3 | 247 | 0.0 | 1.6 | 0.00 | 0.00 | 0.00 | 70 | 1007.8 |
| 20260505093206 | 3 | 247 | 0.0 | 1.6 | 0.00 | 0.00 | 0.00 | 70 | 1007.8 |
| 20260505093202 | 3 | 247 | 0.0 | 1.6 | 0.00 | 0.00 | 0.00 | 70 | 1007.8 |
| 20260505093003 | 3 | 247 | 0.0 | 1.6 | 0.00 | 0.00 | 0.00 | 70 | 1007.8 |
| 20260505092950 | 3 | 247 | 0.0 | 1.6 | 0.00 | 0.00 | 0.00 | 69 | 1007.6 |
| 20260505092926 | 3 | 247 | 0.0 | 1.6 | 0.00 | 0.00 | 0.00 | 69 | 1007.8 |
| 20260505092603 | 3 | 247 | 0.0 | 1.6 | 0.00 | 0.00 | 0.00 | 69 | 1007.6 |
| 20260505092406 | 3 | 247 | 0.0 | 1.6 | 0.00 | 0.00 | 0.00 | 69 | 1007.6 |
| 20260505092304 | 3 | 247 | 0.0 | 1.6 | 0.00 | 0.00 | 0.00 | 69 | 1007.5 |
| 20260505092203 | 3 | 247 | 0.0 | 1.6 | 0.00 | 0.00 | 0.00 | 69 | 1007.5 |
| 20260505091955 | 3 | 248 | 0.0 | 1.6 | 0.00 | 0.00 | 0.00 | 69 | 1007.6 |
| 20260505091948 | 3 | 247 | 0.0 | 1.6 | 0.00 | 0.00 | 0.00 | 69 | 1007.6 |
| 20260505091920 | 4 | 248 | 0.0 | 1.6 | 0.00 | 0.00 | 0.00 | 69 | 1007.6 |
| 20260505091533 | 4 | 250 | 0.0 | 1.6 | 0.00 | 0.00 | 0.00 | 69 | 1007.6 |
| 20260505091331 | 4 | 250 | 0.0 | 1.6 | 0.00 | 0.00 | 0.00 | 69 | 1007.5 |
| 20260505091203 | 4 | 250 | 0.0 | 1.6 | 0.00 | 0.00 | 0.00 | 68 | 1007.4 |
| 20260505091125 | 4 | 251 | 0.0 | 1.6 | 0.00 | 0.00 | 0.00 | 68 | 1007.5 |
| 20260505091006 | 4 | 226 | 0.0 | 1.6 | 0.00 | 0.00 | 0.00 | 68 | 1007.4 |
| 20260505090953 | 4 | 250 | 0.0 | 1.6 | 0.00 | 0.00 | 0.00 | 68 | 1007.5 |
| 20260505090922 | 4 | 226 | 0.0 | 1.6 | 0.00 | 0.00 | 0.00 | 68 | 1007.4 |
| 20260505090619 | 4 | 226 | 0.0 | 3.2 | 0.00 | 0.00 | 0.00 | 68 | 1007.4 |
| 20260505090323 | 4 | 226 | 0.0 | 3.2 | 0.00 | 0.00 | 0.00 | 68 | 1007.5 |
| 20260505090203 | 4 | 226 | 0.0 | 3.2 | 0.00 | 0.00 | 0.00 | 68 | 1007.3 |
| 20260505090119 | 4 | 226 | 0.0 | 3.2 | 0.00 | 0.00 | 0.00 | 68 | 1007.4 |
| 20260505090006 | 4 | 227 | 0.0 | 3.2 | 0.00 | 0.00 | 0.00 | 68 | 1007.4 |
| 20260505085951 | 4 | 226 | 0.0 | 3.2 | 0.00 | 0.00 | 0.00 | 68 | 1007.5 |
| 20260505085920 | 4 | 227 | 0.0 | 3.2 | 0.00 | 0.00 | 0.00 | 68 | 1007.4 |
| 20260505085508 | 4 | 228 | 0.0 | 3.2 | 0.00 | 0.00 | 0.00 | 68 | 1007.3 |
| 20260505085305 | 4 | 228 | 0.0 | 3.2 | 0.00 | 0.00 | 0.00 | 67 | 1007.4 |
| 20260505085202 | 4 | 228 | 0.0 | 3.2 | 0.00 | 0.00 | 0.00 | 67 | 1007.4 |
| 20260505085104 | 4 | 228 | 0.0 | 3.2 | 0.00 | 0.00 | 0.00 | 67 | 1007.3 |
| 20260505085005 | 4 | 228 | 0.0 | 4.8 | 0.00 | 0.00 | 0.00 | 67 | 1007.2 |
| 20260505084707 | 4 | 228 | 0.0 | 4.8 | 0.00 | 0.00 | 0.00 | 67 | 1007.2 |
| 20260505084505 | 4 | 251 | 0.0 | 4.8 | 0.00 | 0.00 | 0.00 | 67 | 1007.2 |
| 20260505084305 | 4 | 251 | 0.0 | 4.8 | 0.00 | 0.00 | 0.00 | 67 | 1007.2 |
| 20260505084204 | 4 | 251 | 0.0 | 4.8 | 0.00 | 0.00 | 0.00 | 67 | 1007.2 |
| 20260505084105 | 4 | 251 | 0.0 | 6.4 | 0.00 | 0.00 | 0.00 | 67 | 1007.2 |
| 20260505083905 | 4 | 264 | 0.0 | 6.4 | 0.00 | 0.00 | 0.00 | 67 | 1007.2 |
| 20260505083706 | 4 | 264 | 0.0 | 6.4 | 0.00 | 0.00 | 0.00 | 67 | 1007.2 |
| 20260505083505 | 4 | 244 | 0.0 | 6.4 | 0.00 | 0.00 | 0.00 | 68 | 1007.1 |
| 20260505083306 | 4 | 245 | 0.0 | 6.4 | 0.00 | 0.00 | 0.00 | 68 | 1007.1 |
| 20260505083214 | 4 | 244 | 0.0 | 6.4 | 0.00 | 0.00 | 0.00 | 69 | 1007.2 |
| 20260505083204 | 4 | 245 | 0.0 | 6.4 | 0.00 | 0.00 | 0.00 | 68 | 1007.1 |
| 20260505082905 | 4 | 243 | 0.0 | 1.6 | 0.00 | 0.00 | 0.00 | 69 | 1007.1 |
| 20260505082707 | 4 | 243 | 0.0 | 1.6 | 0.00 | 0.00 | 0.00 | 69 | 1007.1 |
| 20260505082703 | 4 | 243 | 0.0 | 1.6 | 0.00 | 0.00 | 0.00 | 69 | 1007.1 |
| 20260505082503 | 4 | 243 | 0.0 | 4.8 | 0.00 | 0.00 | 0.00 | 69 | 1007.0 |
| 20260505082301 | 4 | 244 | 0.0 | 4.8 | 0.00 | 0.00 | 0.00 | 69 | 1007.0 |
| 20260505082202 | 4 | 243 | 0.0 | 4.8 | 0.00 | 0.00 | 0.00 | 69 | 1006.9 |
| 20260505082102 | 4 | 243 | 0.0 | 4.8 | 0.00 | 0.00 | 0.00 | 69 | 1007.0 |
| 20260505081902 | 4 | 243 | 0.0 | 4.8 | 0.00 | 0.00 | 0.00 | 69 | 1006.9 |
| 20260505081700 | 4 | 243 | 0.0 | 4.8 | 0.00 | 0.00 | 0.00 | 69 | 1006.9 |
| 20260505081639 | 4 | 243 | 0.0 | 4.8 | 0.00 | 0.00 | 0.00 | 69 | 1007.0 |
| 20260505081539 | 4 | 235 | 0.0 | 1.6 | 0.00 | 0.00 | 0.00 | 70 | 1006.9 |
| 20260505081235 | 4 | 235 | 0.0 | 1.6 | 0.00 | 0.00 | 0.00 | 69 | 1006.8 |
| 20260505081159 | 4 | 235 | 0.0 | 1.6 | 0.00 | 0.00 | 0.00 | 70 | 1006.8 |
| 20260505081033 | 4 | 235 | 0.0 | 1.6 | 0.00 | 0.00 | 0.00 | 69 | 1006.9 |
| 20260505080832 | 4 | 235 | 0.0 | 1.6 | 0.00 | 0.00 | 0.00 | 69 | 1006.9 |
| 20260505080658 | 4 | 235 | 0.0 | 1.6 | 0.00 | 0.00 | 0.00 | 69 | 1006.8 |
| 20260505080634 | 4 | 235 | 0.0 | 1.6 | 0.00 | 0.00 | 0.00 | 69 | 1006.9 |
| 20260505080457 | 4 | 235 | 0.0 | 3.2 | 0.00 | 0.00 | 0.00 | 69 | 1006.9 |
| 20260505080448 | 4 | 235 | 0.0 | 1.6 | 0.00 | 0.00 | 0.00 | 70 | 1006.9 |
| 20260505080422 | 4 | 235 | 0.0 | 3.2 | 0.00 | 0.00 | 0.00 | 69 | 1006.9 |
| 20260505080010 | 4 | 235 | 0.0 | 3.2 | 0.00 | 0.00 | 0.00 | 69 | 1006.9 |
| 20260505075802 | 4 | 235 | 0.0 | 3.2 | 0.00 | 0.00 | 0.00 | 69 | 1006.9 |
| 20260505075635 | 4 | 235 | 0.0 | 3.2 | 0.00 | 0.00 | 0.00 | 69 | 1006.9 |
| 20260505075630 | 4 | 235 | 0.0 | 3.2 | 0.00 | 0.00 | 0.00 | 69 | 1006.9 |
| 20260505075335 | 4 | 235 | 0.0 | 1.6 | 0.00 | 0.00 | 0.00 | 69 | 1006.8 |
| 20260505075135 | 4 | 235 | 0.0 | 1.6 | 0.00 | 0.00 | 0.00 | 69 | 1006.6 |
| 20260505074910 | 4 | 235 | 0.0 | 1.6 | 0.00 | 0.00 | 0.00 | 69 | 1006.6 |
| 20260505074713 | 4 | 235 | 0.0 | 1.6 | 0.00 | 0.00 | 0.00 | 69 | 1006.6 |
| 20260505074631 | 4 | 235 | 0.0 | 1.6 | 0.00 | 0.00 | 0.00 | 69 | 1006.7 |
| 20260505074507 | 4 | 235 | 0.0 | 1.6 | 0.00 | 0.00 | 0.00 | 69 | 1006.6 |
| 20260505074307 | 4 | 235 | 0.0 | 1.6 | 0.00 | 0.00 | 0.00 | 69 | 1006.7 |
| 20260505074121 | 4 | 235 | 0.0 | 1.6 | 0.00 | 0.00 | 0.00 | 69 | 1006.8 |
| 20260505074100 | 4 | 235 | 0.0 | 1.6 | 0.00 | 0.00 | 0.00 | 69 | 1006.8 |
| 20260505073954 | 4 | 235 | 0.0 | 1.6 | 0.00 | 0.00 | 0.00 | 69 | 1006.8 |
| 20260505073703 | 4 | 235 | 0.0 | 1.6 | 0.00 | 0.00 | 0.00 | 69 | 1006.7 |
| 20260505073622 | 4 | 235 | 0.0 | 1.6 | 0.00 | 0.00 | 0.00 | 70 | 1006.7 |
| 20260505073504 | 4 | 235 | 0.0 | 1.6 | 0.00 | 0.00 | 0.00 | 70 | 1006.7 |
| 20260505073302 | 4 | 235 | 0.0 | 1.6 | 0.00 | 0.00 | 0.00 | 70 | 1006.7 |
| 20260505073106 | 4 | 235 | 0.0 | 3.2 | 0.00 | 0.00 | 0.00 | 69 | 1006.7 |
| 20260505073102 | 4 | 235 | 0.0 | 3.2 | 0.00 | 0.00 | 0.00 | 69 | 1006.7 |
| 20260505072833 | 4 | 235 | 0.0 | 3.2 | 0.00 | 0.00 | 0.00 | 69 | 1006.6 |
| 20260505072633 | 4 | 235 | 0.0 | 3.2 | 0.00 | 0.00 | 0.00 | 70 | 1006.7 |
| 20260505072600 | 4 | 235 | 0.0 | 3.2 | 0.00 | 0.00 | 0.00 | 70 | 1006.7 |
| 20260505072437 | 4 | 235 | 0.0 | 3.2 | 0.00 | 0.00 | 0.00 | 70 | 1006.7 |
| 20260505072428 | 4 | 235 | 0.0 | 3.2 | 0.00 | 0.00 | 0.00 | 70 | 1006.6 |
| 20260505072346 | 4 | 235 | 0.0 | 1.6 | 0.00 | 0.00 | 0.00 | 69 | 1006.7 |
| 20260505072008 | 4 | 235 | 0.0 | 0.0 | 0.00 | 0.00 | 0.00 | 69 | 1006.7 |
| 20260505071812 | 4 | 235 | 0.0 | 1.6 | 0.00 | 0.00 | 0.00 | 70 | 1006.7 |
| 20260505071610 | 4 | 235 | 0.0 | 1.6 | 0.00 | 0.00 | 0.00 | 69 | 1006.8 |
| 20260505071558 | 4 | 235 | 0.0 | 1.6 | 0.00 | 0.00 | 0.00 | 69 | 1006.8 |
| 20260505071406 | 4 | 235 | 0.0 | 1.6 | 0.00 | 0.00 | 0.00 | 70 | 1006.7 |
| 20260505071206 | 4 | 235 | 0.0 | 1.6 | 0.00 | 0.00 | 0.00 | 70 | 1006.8 |
| 20260505071058 | 4 | 235 | 0.0 | 1.6 | 0.00 | 0.00 | 0.00 | 70 | 1006.7 |
| 20260505071005 | 4 | 235 | 0.0 | 1.6 | 0.00 | 0.00 | 0.00 | 70 | 1006.8 |
| 20260505070805 | 4 | 235 | 0.0 | 1.6 | 0.00 | 0.00 | 0.00 | 70 | 1006.7 |
| 20260505070708 | 4 | 235 | 0.0 | 1.6 | 0.00 | 0.00 | 0.00 | 70 | 1006.8 |
| 20260505070601 | 4 | 235 | 0.0 | 1.6 | 0.00 | 0.00 | 0.00 | 70 | 1006.8 |
| 20260505070407 | 4 | 235 | 0.0 | 1.6 | 0.00 | 0.00 | 0.00 | 69 | 1006.8 |
| 20260505070206 | 4 | 235 | 0.0 | 0.0 | 0.00 | 0.00 | 0.00 | 69 | 1006.9 |
| 20260505070056 | 4 | 235 | 0.0 | 0.0 | 0.00 | 0.00 | 0.00 | 69 | 1006.9 |
| 20260505070003 | 4 | 235 | 0.0 | 1.6 | 0.00 | 0.00 | 0.00 | 69 | 1006.9 |
| 20260505065803 | -17 | 235 | 0.0 | 1.6 | 0.00 | 0.00 | 0.00 | 1006.9 | |
| 20260505065550 | -17 | 235 | 0.0 | 1.6 | 0.00 | 0.00 | 0.00 | 1006.9 | |
| 20260505065332 | 5 | 235 | 0.0 | 1.6 | 0.00 | 0.00 | 0.00 | 67 | 1006.9 |
| 20260505065132 | 5 | 235 | 0.0 | 1.6 | 0.00 | 0.00 | 0.00 | 67 | 1006.9 |
| 20260505065047 | 5 | 235 | 0.0 | 1.6 | 0.00 | 0.00 | 0.00 | 67 | 1006.9 |
| 20260505065031 | 5 | 235 | 0.0 | 1.6 | 0.00 | 0.00 | 0.00 | 67 | 1006.9 |
| 20260505064704 | 5 | 235 | 0.0 | 1.6 | 0.00 | 0.00 | 0.00 | 67 | 1006.9 |
| 20260505064546 | 5 | 235 | 0.0 | 1.6 | 0.00 | 0.00 | 0.00 | 67 | 1006.8 |
| 20260505064504 | 5 | 235 | 0.0 | 1.6 | 0.00 | 0.00 | 0.00 | 67 | 1006.9 |
| 20260505064303 | 5 | 235 | 0.0 | 1.6 | 0.00 | 0.00 | 0.00 | 67 | 1006.8 |
| 20260505064103 | 5 | 235 | 0.0 | 1.6 | 0.00 | 0.00 | 0.00 | 68 | 1006.7 |
| 20260505064045 | 5 | 235 | 0.0 | 1.6 | 0.00 | 0.00 | 0.00 | 68 | 1006.7 |
| 20260505063903 | 5 | 235 | 0.0 | 1.6 | 0.00 | 0.00 | 0.00 | 68 | 1006.7 |
| 20260505063704 | 5 | 235 | 0.0 | 1.6 | 0.00 | 0.00 | 0.00 | 68 | 1006.7 |
| 20260505063545 | 5 | 235 | 0.0 | 1.6 | 0.00 | 0.00 | 0.00 | 71 | 1006.7 |
| 20260505063507 | 5 | 235 | 0.0 | 1.6 | 0.00 | 0.00 | 0.00 | 71 | 1006.7 |
| 20260505063300 | 5 | 235 | 0.0 | 1.6 | 0.00 | 0.00 | 0.00 | 68 | 1006.7 |
| 20260505063157 | 5 | 235 | 0.0 | 1.6 | 0.00 | 0.00 | 0.00 | 68 | 1006.7 |
| 20260505063047 | 5 | 235 | 0.0 | 1.6 | 0.00 | 0.00 | 0.00 | 68 | 1006.7 |
| 20260505062848 | 5 | 235 | 0.0 | 1.6 | 0.00 | 0.00 | 0.00 | 68 | 1006.8 |
| 20260505062646 | 5 | 235 | 0.0 | 1.6 | 0.00 | 0.00 | 0.00 | 68 | 1006.7 |
| 20260505062546 | 5 | 235 | 0.0 | 1.6 | 0.00 | 0.00 | 0.00 | 68 | 1006.8 |
| 20260505062453 | 5 | 235 | 0.0 | 1.6 | 0.00 | 0.00 | 0.00 | 68 | 1006.8 |
| 20260505062246 | 5 | 235 | 0.0 | 1.6 | 0.00 | 0.00 | 0.00 | 68 | 1006.7 |
| 20260505062047 | 5 | 235 | 0.0 | 1.6 | 0.00 | 0.00 | 0.00 | 67 | 1006.8 |
| 20260505061848 | 5 | 235 | 0.0 | 1.6 | 0.00 | 0.00 | 0.00 | 68 | 1006.7 |
| 20260505061648 | 5 | 235 | 0.0 | 1.6 | 0.00 | 0.00 | 0.00 | 68 | 1006.8 |
| 20260505061549 | 5 | 235 | 0.0 | 1.6 | 0.00 | 0.00 | 0.00 | 67 | 1006.8 |
| 20260505061545 | 5 | 235 | 0.0 | 1.6 | 0.00 | 0.00 | 0.00 | 67 | 1006.7 |
| 20260505061246 | 5 | 235 | 0.0 | 1.6 | 0.00 | 0.00 | 0.00 | 67 | 1006.8 |
| 20260505061046 | 5 | 235 | 0.0 | 1.6 | 0.00 | 0.00 | 0.00 | 66 | 1006.8 |
| 20260505060846 | 5 | 235 | 0.0 | 1.6 | 0.00 | 0.00 | 0.00 | 66 | 1006.8 |
| 20260505060646 | 5 | 235 | 0.0 | 1.6 | 0.00 | 0.00 | 0.00 | 65 | 1006.8 |
| 20260505060541 | 5 | 235 | 0.0 | 1.6 | 0.00 | 0.00 | 0.00 | 65 | 1006.8 |
| 20260505060446 | 5 | 235 | 0.0 | 1.6 | 0.00 | 0.00 | 0.00 | 65 | 1006.8 |
| 20260505060331 | 5 | 235 | 0.0 | 1.6 | 0.00 | 0.00 | 0.00 | 65 | 1006.9 |
| 20260505060321 | 5 | 235 | 0.0 | 1.6 | 0.00 | 0.00 | 0.00 | 65 | 1006.9 |
| 20260505060255 | 5 | 235 | 0.0 | 1.6 | 0.00 | 0.00 | 0.00 | 65 | 1006.9 |
| 20260505055956 | 5 | 235 | 0.0 | 1.6 | 0.00 | 0.00 | 0.00 | 66 | 1006.9 |
| 20260505055645 | 5 | 235 | 0.0 | 3.2 | 0.00 | 0.00 | 0.00 | 66 | 1006.9 |
| 20260505055540 | 5 | 235 | 0.0 | 3.2 | 0.00 | 0.00 | 0.00 | 65 | 1006.8 |
| 20260505055446 | 5 | 235 | 0.0 | 3.2 | 0.00 | 0.00 | 0.00 | 65 | 1006.8 |
| 20260505055333 | 5 | 235 | 0.0 | 3.2 | 0.00 | 0.00 | 0.00 | 66 | 1006.8 |
| 20260505055324 | 5 | 235 | 0.0 | 3.2 | 0.00 | 0.00 | 0.00 | 65 | 1006.8 |
| 20260505055257 | 5 | 235 | 0.0 | 3.2 | 0.00 | 0.00 | 0.00 | 66 | 1006.8 |
| 20260505054846 | 5 | 235 | 0.0 | 3.2 | 0.00 | 0.00 | 0.00 | 65 | 1006.7 |
| 20260505054646 | 5 | 235 | 0.0 | 3.2 | 0.00 | 0.00 | 0.00 | 65 | 1006.7 |
| 20260505054537 | 5 | 235 | 0.0 | 3.2 | 0.00 | 0.00 | 0.00 | 65 | 1006.7 |
| 20260505054446 | 5 | 235 | 0.0 | 6.4 | 0.00 | 0.00 | 0.00 | 64 | 1006.7 |
| 20260505054418 | 5 | 235 | 0.0 | 6.4 | 0.00 | 0.00 | 0.00 | 65 | 1006.7 |
| 20260505054255 | 5 | 235 | 0.0 | 6.4 | 0.00 | 0.00 | 0.00 | 65 | 1006.7 |
| 20260505053847 | 5 | 235 | 0.0 | 6.4 | 0.00 | 0.00 | 0.00 | 64 | 1006.7 |
| 20260505053647 | 5 | 235 | 0.0 | 6.4 | 0.00 | 0.00 | 0.00 | 64 | 1006.7 |
| 20260505053534 | 5 | 235 | 0.0 | 4.8 | 0.00 | 0.00 | 0.00 | 63 | 1006.8 |
| 20260505053447 | 5 | 235 | 0.0 | 4.8 | 0.00 | 0.00 | 0.00 | 63 | 1006.8 |
| 20260505053322 | 5 | 235 | 0.0 | 4.8 | 0.00 | 0.00 | 0.00 | 63 | 1006.7 |
| 20260505053313 | 5 | 235 | 0.0 | 4.8 | 0.00 | 0.00 | 0.00 | 63 | 1006.8 |
| 20260505053250 | 5 | 235 | 0.0 | 4.8 | 0.00 | 0.00 | 0.00 | 63 | 1006.7 |
| 20260505052850 | 6 | 235 | 0.0 | 4.8 | 0.00 | 0.00 | 0.00 | 63 | 1006.7 |
| 20260505052737 | 6 | 231 | 0.0 | 1.6 | 0.00 | 0.00 | 0.00 | 63 | 1006.7 |
| 20260505052532 | 6 | 231 | 0.0 | 1.6 | 0.00 | 0.00 | 0.00 | 63 | 1006.6 |
| 20260505052435 | 6 | 231 | 0.0 | 1.6 | 0.00 | 0.00 | 0.00 | 63 | 1006.7 |
| 20260505052234 | 6 | 230 | 0.0 | 3.2 | 0.00 | 0.00 | 0.00 | 64 | 1006.6 |
| 20260505052008 | 6 | 230 | 0.0 | 3.2 | 0.00 | 0.00 | 0.00 | 64 | 1006.6 |
| 20260505051811 | 6 | 230 | 0.0 | 8.0 | 0.00 | 0.00 | 0.00 | 64 | 1006.6 |
| 20260505051608 | 6 | 230 | 0.0 | 8.0 | 0.00 | 0.00 | 0.00 | 64 | 1006.5 |
| 20260505051530 | 6 | 230 | 0.0 | 8.0 | 0.00 | 0.00 | 0.00 | 64 | 1006.5 |
| 20260505051405 | 6 | 230 | 0.0 | 8.0 | 0.00 | 0.00 | 0.00 | 64 | 1006.6 |
| 20260505051204 | 6 | 230 | 0.0 | 8.0 | 0.00 | 0.00 | 0.00 | 63 | 1006.6 |
| 20260505051004 | 5 | 230 | 0.0 | 8.0 | 0.00 | 0.00 | 0.00 | 63 | 1006.5 |
| 20260505050909 | 5 | 243 | 0.0 | 1.6 | 0.00 | 0.00 | 0.00 | 63 | 1006.6 |
| 20260505050747 | 5 | 243 | 0.0 | 3.2 | 0.00 | 0.00 | 0.00 | 63 | 1006.5 |
| 20260505050333 | 5 | 243 | 0.0 | 3.2 | 0.00 | 0.00 | 0.00 | 63 | 1006.5 |
| 20260505050133 | 5 | 243 | 0.0 | 3.2 | 0.00 | 0.00 | 0.00 | 63 | 1006.5 |
| 20260505041558 | 5 | 241 | 0.0 | 1.6 | 0.00 | 0.00 | 0.00 | 63 | 1006.4 |
| 20260505041425 | 5 | 241 | 0.0 | 1.6 | 0.00 | 0.00 | 0.00 | 62 | 1006.3 |
| 20260505041358 | 5 | 241 | 0.0 | 1.6 | 0.00 | 0.00 | 0.00 | 62 | 1006.3 |
| 20260505041258 | 5 | 241 | 0.0 | 1.6 | 0.00 | 0.00 | 0.00 | 63 | 1006.3 |
| 20260505040954 | 5 | 241 | 0.0 | 1.6 | 0.00 | 0.00 | 0.00 | 63 | 1006.4 |
| 20260505040922 | 5 | 241 | 0.0 | 1.6 | 0.00 | 0.00 | 0.00 | 63 | 1006.4 |
| 20260505040756 | 5 | 241 | 0.0 | 1.6 | 0.00 | 0.00 | 0.00 | 63 | 1006.4 |
| 20260505040540 | 5 | 241 | 0.0 | 1.6 | 0.00 | 0.00 | 0.00 | 64 | 1006.4 |
| 20260505040422 | 5 | 241 | 0.0 | 1.6 | 0.00 | 0.00 | 0.00 | 63 | 1006.4 |
| 20260505040342 | 5 | 241 | 0.0 | 1.6 | 0.00 | 0.00 | 0.00 | 64 | 1006.4 |
| 20260505040140 | 6 | 241 | 0.0 | 1.6 | 0.00 | 0.00 | 0.00 | 64 | 1006.3 |
| 20260505035934 | 6 | 241 | 0.0 | 1.6 | 0.00 | 0.00 | 0.00 | 64 | 1006.4 |
| 20260505035921 | 6 | 241 | 0.0 | 1.6 | 0.00 | 0.00 | 0.00 | 63 | 1006.4 |
| 20260505035745 | 6 | 241 | 0.0 | 1.6 | 0.00 | 0.00 | 0.00 | 63 | 1006.3 |
| 20260505035732 | 6 | 241 | 0.0 | 1.6 | 0.00 | 0.00 | 0.00 | 64 | 1006.3 |
| 20260505035710 | 6 | 241 | 0.0 | 1.6 | 0.00 | 0.00 | 0.00 | 63 | 1006.3 |
| 20260505035331 | 6 | 241 | 0.0 | 1.6 | 0.00 | 0.00 | 0.00 | 63 | 1006.3 |
| 20260505035234 | 6 | 241 | 0.0 | 1.6 | 0.00 | 0.00 | 0.00 | 64 | 1006.4 |
| 20260505034931 | 6 | 241 | 0.0 | 1.6 | 0.00 | 0.00 | 0.00 | 64 | 1006.4 |
| 20260505034918 | 6 | 241 | 0.0 | 1.6 | 0.00 | 0.00 | 0.00 | 64 | 1006.3 |
| 20260505034732 | 6 | 241 | 0.0 | 1.6 | 0.00 | 0.00 | 0.00 | 64 | 1006.3 |
| 20260505034532 | 6 | 241 | 0.0 | 1.6 | 0.00 | 0.00 | 0.00 | 64 | 1006.3 |
| 20260505034416 | 6 | 241 | 0.0 | 1.6 | 0.00 | 0.00 | 0.00 | 64 | 1006.3 |
| 20260505034318 | 6 | 241 | 0.0 | 1.6 | 0.00 | 0.00 | 0.00 | 64 | 1006.3 |
| 20260505034121 | 6 | 241 | 0.0 | 1.6 | 0.00 | 0.00 | 0.00 | 64 | 1006.3 |
| 20260505033915 | 6 | 241 | 0.0 | 1.6 | 0.00 | 0.00 | 0.00 | 63 | 1006.2 |
| 20260505033718 | 6 | 241 | 0.0 | 1.6 | 0.00 | 0.00 | 0.00 | 62 | 1006.2 |
| 20260505033618 | 6 | 241 | 0.0 | 1.6 | 0.00 | 0.00 | 0.00 | 62 | 1006.2 |
| 20260505033406 | 6 | 241 | 0.0 | 0.0 | 0.00 | 0.00 | 0.00 | 62 | 1006.3 |
| 20260505033320 | 6 | 241 | 0.0 | 0.0 | 0.00 | 0.00 | 0.00 | 62 | 1006.3 |
| 20260505033125 | 6 | 241 | 0.0 | 0.0 | 0.00 | 0.00 | 0.00 | 61 | 1006.3 |
| 20260505032909 | 6 | 241 | 0.0 | 0.0 | 0.00 | 0.00 | 0.00 | 61 | 1006.3 |
| 20260505032707 | 6 | 241 | 0.0 | 0.0 | 0.00 | 0.00 | 0.00 | 61 | 1006.3 |
| 20260505032507 | 6 | 241 | 0.0 | 0.0 | 0.00 | 0.00 | 0.00 | 60 | 1006.3 |
| 20260505032407 | 6 | 241 | 0.0 | 0.0 | 0.00 | 0.00 | 0.00 | 61 | 1006.3 |
| 20260505032306 | 6 | 241 | 0.0 | 0.0 | 0.00 | 0.00 | 0.00 | 61 | 1006.2 |
| 20260505032111 | -17 | 241 | 0.0 | 1.6 | 0.00 | 0.00 | 0.00 | 1006.2 | |
| 20260505032009 | 7 | 241 | 0.0 | 1.6 | 0.00 | 0.00 | 0.00 | 58 | 1006.3 |
| 20260505031908 | 7 | 241 | 0.0 | 1.6 | 0.00 | 0.00 | 0.00 | 58 | 1006.3 |
| 20260505031703 | 7 | 241 | 0.0 | 1.6 | 0.00 | 0.00 | 0.00 | 58 | 1006.3 |
| 20260505031643 | 7 | 241 | 0.0 | 1.6 | 0.00 | 0.00 | 0.00 | 58 | 1006.3 |
| 20260505031625 | 7 | 241 | 0.0 | 1.6 | 0.00 | 0.00 | 0.00 | 58 | 1006.2 |
| 20260505031302 | 7 | 241 | 0.0 | 1.6 | 0.00 | 0.00 | 0.00 | 58 | 1006.2 |
| 20260505031057 | 7 | 241 | 0.0 | 1.6 | 0.00 | 0.00 | 0.00 | 58 | 1006.3 |
| 20260505030906 | 7 | 241 | 0.0 | 1.6 | 0.00 | 0.00 | 0.00 | 58 | 1006.3 |
| 20260505030902 | 7 | 241 | 0.0 | 1.6 | 0.00 | 0.00 | 0.00 | 58 | 1006.3 |
| 20260505030701 | 7 | 241 | 0.0 | 1.6 | 0.00 | 0.00 | 0.00 | 58 | 1006.3 |
| 20260505030649 | 7 | 241 | 0.0 | 1.6 | 0.00 | 0.00 | 0.00 | 56 | 1006.2 |
| 20260505030625 | 7 | 241 | 0.0 | 1.6 | 0.00 | 0.00 | 0.00 | 56 | 1006.3 |
| 20260505030232 | 7 | 241 | 0.0 | 1.6 | 0.00 | 0.00 | 0.00 | 57 | 1006.2 |
| 20260505030032 | 7 | 241 | 0.0 | 1.6 | 0.00 | 0.00 | 0.00 | 56 | 1006.3 |
| 20260505025932 | 7 | 241 | 0.0 | 1.6 | 0.00 | 0.00 | 0.00 | 54 | 1006.3 |
| 20260505025903 | 7 | 241 | 0.0 | 1.6 | 0.00 | 0.00 | 0.00 | 54 | 1006.2 |
| 20260505025654 | 7 | 241 | 0.0 | 1.6 | 0.00 | 0.00 | 0.00 | 54 | 1006.2 |
| 20260505025644 | 7 | 241 | 0.0 | 1.6 | 0.00 | 0.00 | 0.00 | 54 | 1006.2 |
| 20260505025616 | 7 | 241 | 0.0 | 1.6 | 0.00 | 0.00 | 0.00 | 54 | 1006.2 |
| 20260505025202 | 7 | 241 | 0.0 | 1.6 | 0.00 | 0.00 | 0.00 | 54 | 1006.2 |
| 20260505025006 | 7 | 241 | 0.0 | 1.6 | 0.00 | 0.00 | 0.00 | 54 | 1006.1 |
| 20260505024900 | 7 | 241 | 0.0 | 1.6 | 0.00 | 0.00 | 0.00 | 54 | 1006.1 |
| 20260505024800 | 7 | 241 | 0.0 | 1.6 | 0.00 | 0.00 | 0.00 | 54 | 1006.0 |
| 20260505024649 | 8 | 241 | 0.0 | 3.2 | 0.00 | 0.00 | 0.00 | 54 | 1006.2 |
| 20260505024642 | 8 | 241 | 0.0 | 1.6 | 0.00 | 0.00 | 0.00 | 54 | 1006.1 |
| 20260505024616 | 8 | 241 | 0.0 | 3.2 | 0.00 | 0.00 | 0.00 | 54 | 1006.2 |
| 20260505024250 | 8 | 241 | 0.0 | 6.4 | 0.00 | 0.00 | 0.00 | 54 | 1006.1 |
| 20260505023952 | 8 | 241 | 0.0 | 6.4 | 0.00 | 0.00 | 0.00 | 54 | 1006.1 |
| 20260505023832 | 8 | 241 | 0.0 | 6.4 | 0.00 | 0.00 | 0.00 | 54 | 1006.0 |
| 20260505023749 | 8 | 241 | 0.0 | 6.4 | 0.00 | 0.00 | 0.00 | 54 | 1006.0 |
| 20260505023547 | 8 | 241 | 0.0 | 6.4 | 0.00 | 0.00 | 0.00 | 54 | 1006.0 |
| 20260505023349 | 8 | 240 | 0.0 | 6.4 | 0.00 | 0.00 | 0.00 | 53 | 1006.0 |
| 20260505023302 | 8 | 240 | 0.0 | 6.4 | 0.00 | 0.00 | 0.00 | 53 | 1006.0 |
| 20260505023250 | 8 | 245 | 0.0 | 3.2 | 0.00 | 0.00 | 0.00 | 53 | 1005.9 |
| 20260505022949 | 8 | 245 | 0.0 | 4.8 | 0.00 | 0.00 | 0.00 | 52 | 1005.9 |
| 20260505022805 | 8 | 245 | 0.0 | 4.8 | 0.00 | 0.00 | 0.00 | 52 | 1005.9 |
| 20260505022748 | 8 | 245 | 0.0 | 4.8 | 0.00 | 0.00 | 0.00 | 52 | 1005.9 |
| 20260505022544 | 8 | 245 | 0.0 | 4.8 | 0.00 | 0.00 | 0.00 | 52 | 1005.9 |
| 20260505022337 | 8 | 245 | 0.0 | 4.8 | 0.00 | 0.00 | 0.00 | 52 | 1005.9 |
| 20260505022305 | 8 | 245 | 0.0 | 4.8 | 0.00 | 0.00 | 0.00 | 52 | 1005.9 |
| 20260505022129 | 8 | 245 | 0.0 | 4.8 | 0.00 | 0.00 | 0.00 | 51 | 1005.9 |
| 20260505021935 | 8 | 244 | 0.0 | 4.8 | 0.00 | 0.00 | 0.00 | 52 | 1005.8 |
| 20260505021804 | 8 | 235 | 0.0 | 3.2 | 0.00 | 0.00 | 0.00 | 51 | 1005.8 |
| 20260505021734 | 8 | 235 | 0.0 | 3.2 | 0.00 | 0.00 | 0.00 | 51 | 1005.8 |
| 20260505021635 | 8 | 235 | 0.0 | 6.4 | 0.00 | 0.00 | 0.00 | 51 | 1005.8 |
| 20260505021307 | 8 | 235 | 0.0 | 6.4 | 0.00 | 0.00 | 0.00 | 51 | 1005.8 |
| 20260505021131 | 8 | 235 | 0.0 | 6.4 | 0.00 | 0.00 | 0.00 | 51 | 1005.8 |
| 20260505020930 | 8 | 235 | 0.0 | 6.4 | 0.00 | 0.00 | 0.00 | 52 | 1005.7 |
| 20260505020731 | 8 | 235 | 0.0 | 6.4 | 0.00 | 0.00 | 0.00 | 50 | 1005.6 |
| 20260505020524 | 8 | 214 | 0.0 | 6.4 | 0.00 | 0.00 | 0.00 | 51 | 1005.6 |
| 20260505020324 | 8 | 213 | 0.0 | 6.4 | 0.00 | 0.00 | 0.00 | 51 | 1005.6 |
| 20260505020231 | 8 | 213 | 0.0 | 6.4 | 0.00 | 0.00 | 0.00 | 51 | 1005.6 |
| 20260505020121 | 8 | 238 | 0.0 | 6.4 | 0.00 | 0.00 | 0.00 | 50 | 1005.6 |
| 20260505020026 | 8 | 238 | 0.0 | 6.4 | 0.00 | 0.00 | 0.00 | 51 | 1005.6 |
| 20260505015723 | 8 | 238 | 0.0 | 6.4 | 0.00 | 0.00 | 0.00 | 50 | 1005.6 |
| 20260505015516 | 8 | 237 | 0.0 | 6.4 | 0.00 | 0.00 | 0.00 | 50 | 1005.6 |
| 20260505015312 | 8 | 238 | 0.0 | 6.4 | 0.00 | 0.00 | 0.00 | 50 | 1005.5 |
| 20260505015231 | 8 | 220 | 0.0 | 6.4 | 0.00 | 0.00 | 0.00 | 50 | 1005.5 |
| 20260505015112 | 8 | 290 | 0.0 | 6.4 | 0.00 | 0.00 | 0.00 | 50 | 1005.5 |
| 20260505014920 | 8 | 255 | 0.0 | 14.5 | 0.00 | 0.00 | 0.00 | 50 | 1005.5 |
| 20260505014707 | 8 | 255 | 0.0 | 14.5 | 0.00 | 0.00 | 0.00 | 50 | 1005.5 |
| 20260505014434 | 8 | 155 | 0.0 | 14.5 | 0.00 | 0.00 | 0.00 | 49 | 1005.5 |
| 20260505014339 | 8 | 227 | 0.0 | 14.5 | 0.00 | 0.00 | 0.00 | 49 | 1005.5 |
| 20260505014236 | 8 | 227 | 0.0 | 14.5 | 0.00 | 0.00 | 0.00 | 49 | 1005.5 |
| 20260505014034 | 9 | 289 | 0.0 | 14.5 | 0.00 | 0.00 | 0.00 | 49 | 1005.4 |
| 20260505013844 | 9 | 212 | 0.0 | 14.5 | 0.00 | 0.00 | 0.00 | 48 | 1005.4 |
| 20260505013734 | 9 | 212 | 0.0 | 14.5 | 0.00 | 0.00 | 0.00 | 48 | 1005.4 |
| 20260505013635 | 9 | 212 | 0.0 | 14.5 | 0.00 | 0.00 | 0.00 | 48 | 1005.5 |
| 20260505013432 | 9 | 247 | 0.0 | 14.5 | 0.00 | 0.00 | 0.00 | 48 | 1005.4 |
| 20260505013236 | 9 | 250 | 0.0 | 9.7 | 0.00 | 0.00 | 0.00 | 51 | 1005.3 |
| 20260505013008 | 9 | 250 | 0.0 | 9.7 | 0.00 | 0.00 | 0.00 | 51 | 1005.3 |
| 20260505012735 | 9 | 245 | 0.0 | 9.7 | 0.00 | 0.00 | 0.00 | 49 | 1005.3 |
| 20260505012729 | 9 | 245 | 0.0 | 9.7 | 0.00 | 0.00 | 0.00 | 51 | 1005.3 |
| 20260505012645 | 9 | 197 | 0.0 | 6.4 | 0.00 | 0.00 | 0.00 | 52 | 1005.2 |